Moscow MillsWeather Station
Hourly Leaf Wetness Data

Source: University of Missouri

To the bottom of the page

Year Month Day Hour Leaf Wetness Total
Precipitation
Avg. Temp Avg. Rel.
Humidity
Wind
Speed
CST mV in mm F C % mph
2017 08 12 1:00 Wet 293.1 0.0 0.00 62.8 17.1 87.3 0.9
2017 08 12 2:00 Wet 313.6 0.0 0.00 60.6 15.9 91.3 1.1
2017 08 12 3:00 Wet 386.3 0.0 0.00 59.0 15.0 96.7 0.8
2017 08 12 4:00 Wet 437.2 0.0 0.00 58.5 14.7 94.7 1.1
2017 08 12 5:00 Wet 423.8 0.0 0.00 56.2 13.4 97.8 1.0
2017 08 12 6:00 Wet 387.7 0.0 0.00 55.4 13.0 97.8 0.5
2017 08 12 7:00 Wet 296.7 0.0 0.00 59.9 15.5 90.4 0.5
2017 08 12 8:00 269.9 0.0 0.00 66.8 19.3 74.15 2.9
2017 08 12 9:00 267.8 0.0 0.00 72.6 22.6 59.21 3.9
2017 08 12 10:00 267.0 0.0 0.00 74.1 23.4 50.17 7.4
2017 08 12 11:00 266.4 0.0 0.00 75.9 24.4 45.75 6.6
2017 08 12 12:00 266.2 0.0 0.00 76.4 24.7 44.24 6.2
2017 08 12 13:00 265.8 0.0 0.00 78.6 25.9 39.51 5.2
2017 08 12 14:00 265.7 0.0 0.00 79.9 26.6 38.56 5.3
2017 08 12 15:00 266.0 0.0 0.00 78.4 25.8 39.19 5.1
2017 08 12 16:00 266.0 0.0 0.00 79.2 26.2 37.46 4.9
2017 08 12 17:00 266.2 0.0 0.00 77.9 25.5 40.1 4.2
2017 08 12 18:00 266.0 0.0 0.00 78.5 25.8 38.49 5.3
2017 08 12 19:00 266.6 0.0 0.00 76.3 24.6 42.16 3.9
2017 08 12 20:00 268.4 0.0 0.00 69.9 21.1 56.58 0.1
2017 08 12 21:00 270.8 0.0 0.00 64.6 18.1 71.09 0.0
2017 08 12 22:00 273.9 0.0 0.00 61.9 16.6 79.71 0.4
2017 08 12 23:00 Wet 289.2 0.0 0.00 60.0 15.6 85.9 0.3
2017 08 12 24:00 Wet 335.0 0.0 0.00 58.1 14.5 90.9 0.5
2017 08 13 1:00 Wet 367.9 0.0 0.00 57.5 14.1 90.5 0.6
2017 08 13 2:00 Wet 408.3 0.0 0.00 55.8 13.2 94.9 0.4
2017 08 13 3:00 Wet 450.1 0.0 0.00 54.8 12.7 95.9 0.1
2017 08 13 4:00 Wet 422.6 0.0 0.00 54.0 12.2 97.1 0.3
2017 08 13 5:00 Wet 398.7 0.0 0.00 53.4 11.9 96.6 0.0
2017 08 13 6:00 Wet 388.2 0.0 0.00 52.9 11.6 97 0.0
2017 08 13 7:00 Wet 306.1 0.0 0.00 56.8 13.8 89.9 0.0
2017 08 13 8:00 269.6 0.0 0.00 63.9 17.7 76.78 1.3
2017 08 13 9:00 267.7 0.0 0.00 69.0 20.5 64.79 3.9
2017 08 13 10:00 266.8 0.0 0.00 73.2 22.9 54.33 4.6
2017 08 13 11:00 266.1 0.0 0.00 76.1 24.5 46.83 5.8
2017 08 13 12:00 265.9 0.0 0.00 77.4 25.2 44.78 5.6
2017 08 13 13:00 266.0 0.0 0.00 78.4 25.8 43.23 6.5
2017 08 13 14:00 266.0 0.0 0.00 79.0 26.1 41.96 6.6
2017 08 13 15:00 266.0 0.0 0.00 79.2 26.2 42.49 6.4
2017 08 13 16:00 266.1 0.0 0.00 79.8 26.6 41.63 6.2
2017 08 13 17:00 266.6 0.0 0.00 77.6 25.3 46.8 5.6
2017 08 13 18:00 266.7 0.0 0.00 76.7 24.9 48.62 5.4
2017 08 13 19:00 267.2 0.0 0.00 75.2 24.0 51.15 3.8
2017 08 13 20:00 268.0 0.0 0.00 72.5 22.5 58.33 2.2
2017 08 13 21:00 268.8 0.0 0.00 71.0 21.7 62.74 2.0
2017 08 13 22:00 268.8 0.0 0.00 69.7 21.0 66.68 2.9
2017 08 13 23:00 269.5 0.0 0.00 68.6 20.3 70.8 1.0
2017 08 13 24:00 269.5 0.0 0.00 68.5 20.3 71.66 1.3
2017 08 14 1:00 269.5 0.0 0.00 68.8 20.4 70.72 0.6
2017 08 14 2:00 270.1 0.0 0.00 67.4 19.7 77.97 0.8
2017 08 14 3:00 270.2 0.0 0.00 67.5 19.7 79.24 0.5
2017 08 14 4:00 270.5 0.0 0.00 68.3 20.2 79.29 0.2
2017 08 14 5:00 270.8 0.0 0.00 68.3 20.2 81.5 0.7
2017 08 14 6:00 270.8 0.0 0.00 67.7 19.9 83.6 1.5
2017 08 14 7:00 270.8 0.0 0.00 68.0 20.0 84.1 1.8
2017 08 14 8:00 270.5 0.0 0.00 69.3 20.8 82.1 2.2
2017 08 14 9:00 269.6 0.0 0.00 72.1 22.3 74.84 4.1
2017 08 14 10:00 269.2 0.0 0.00 73.5 23.1 69.93 4.8
2017 08 14 11:00 268.0 0.0 0.00 76.6 24.8 62.29 5.1
2017 08 14 12:00 268.6 0.0 0.00 75.8 24.4 66.23 4.1
2017 08 14 13:00 267.9 0.0 0.00 77.6 25.4 64.62 4.9
2017 08 14 14:00 268.0 0.0 0.00 79.3 26.3 63.91 6.3
2017 08 14 15:00 268.0 0.0 0.00 80.0 26.7 63.54 3.9
2017 08 14 16:00 268.6 0.0 0.00 79.6 26.5 65.36 5.3
2017 08 14 17:00 268.6 0.0 0.00 79.6 26.5 64.54 7.0
2017 08 14 18:00 268.8 0.0 0.00 78.6 25.9 66.89 6.0
2017 08 14 19:00 269.6 0.0 0.00 76.6 24.8 72.8 3.7
2017 08 14 20:00 271.9 0.0 0.00 74.2 23.4 78.25 0.4
2017 08 14 21:00 Wet 285.6 0.0 0.00 70.0 21.1 89.6 0.2
2017 08 14 22:00 Wet 334.0 0.0 0.00 69.0 20.5 92.7 0.0
2017 08 14 23:00 Wet 375.4 0.0 0.00 68.1 20.0 94.5 0.2
2017 08 14 24:00 Wet 408.5 0.0 0.00 67.2 19.5 95.6 0.1
2017 08 15 1:00 Wet 390.3 0.0 0.00 64.8 18.3 96.8 0.1
2017 08 15 2:00 Wet 383.5 0.0 0.00 64.3 18.0 97.9 0.0
2017 08 15 3:00 Wet 371.7 0.0 0.00 63.0 17.2 97.5 0.0
2017 08 15 4:00 Wet 369.1 0.0 0.00 62.8 17.1 97.8 0.0
2017 08 15 5:00 Wet 365.6 0.0 0.00 62.2 16.8 96.7 0.3
2017 08 15 6:00 Wet 358.8 0.0 0.00 62.0 16.6 97.4 0.0
2017 08 15 7:00 Wet 328.6 0.0 0.00 64.3 17.9 98.3 0.6
2017 08 15 8:00 278.2 0.0 0.00 68.7 20.4 92.5 1.1
2017 08 15 9:00 269.2 0.0 0.00 75.6 24.2 78.55 2.7
2017 08 15 10:00 267.8 0.0 0.00 80.3 26.9 65.48 3.1
2017 08 15 11:00 267.3 0.0 0.00 82.1 27.9 59.68 2.9
2017 08 15 12:00 266.9 0.0 0.00 84.4 29.1 54.06 4.2
2017 08 15 13:00 266.4 0.0 0.00 86.6 30.4 48.08 4.1
2017 08 15 14:00 266.1 0.0 0.00 88.5 31.4 44.18 4.6
2017 08 15 15:00 266.4 0.0 0.00 89.2 31.8 43.17 4.7
2017 08 15 16:00 266.7 0.0 0.00 88.2 31.2 43.71 5.4
2017 08 15 17:00 266.9 0.0 0.00 86.9 30.5 48.81 5.5
2017 08 15 18:00 267.4 0.0 0.00 85.4 29.7 53.11 5.7
2017 08 15 19:00 268.2 0.0 0.00 82.9 28.3 60 3.4
2017 08 15 20:00 269.2 0.0 0.00 79.4 26.4 68.41 1.6
2017 08 15 21:00 270.0 0.0 0.00 77.4 25.2 72.31 2.7
2017 08 15 22:00 270.1 0.0 0.00 77.1 25.0 72.44 3.0
2017 08 15 23:00 270.1 0.0 0.00 77.3 25.1 73.36 3.9
2017 08 15 24:00 270.6 0.0 0.00 76.3 24.6 77.11 3.6
2017 08 16 1:00 271.5 0.0 0.00 74.8 23.8 81.4 0.6
2017 08 16 2:00 273.3 0.0 0.00 72.7 22.6 86.6 0.8
2017 08 16 3:00 275.3 0.0 0.00 70.6 21.5 92 1.7
2017 08 16 4:00 Wet 359.5 0.0 1.02 71.2 21.8 92.8 2.1
2017 08 16 5:00 Wet 375.0 0.1 2.29 71.5 21.9 95.8 1.8
2017 08 16 6:00 Wet 323.1 0.0 0.00 70.5 21.4 96.8 2.5
2017 08 16 7:00 Wet 327.5 0.0 0.00 71.6 22.0 96.2 3.6
2017 08 16 8:00 Wet 287.9 0.0 0.00 73.3 22.9 94 2.9
2017 08 16 9:00 273.9 0.0 0.00 74.5 23.6 91.5 3.8
2017 08 16 10:00 Wet 346.8 0.0 0.25 75.1 23.9 91.3 2.0
2017 08 16 11:00 Wet 294.6 0.0 0.00 77.0 25.0 87.1 1.4
2017 08 16 12:00 Wet 381.2 0.0 0.76 78.5 25.8 85 2.5
2017 08 16 13:00 Wet 347.3 0.1 1.27 79.8 26.5 82.8 4.3
2017 08 16 14:00 272.0 0.0 0.00 83.1 28.4 73.56 5.6
2017 08 16 15:00 Wet 305.9 0.2 4.06 82.4 28.0 74.62 3.6
2017 08 16 16:00 Wet 395.0 0.2 4.06 72.5 22.5 90.9 7.2
2017 08 16 17:00 Wet 329.7 0.0 0.00 72.5 22.5 92.1 5.1
2017 08 16 18:00 Wet 374.6 0.0 0.76 71.4 21.9 91.1 6.6
2017 08 16 19:00 Wet 293.2 0.0 0.00 70.8 21.5 92 4.6
2017 08 16 20:00 277.4 0.0 0.00 70.1 21.2 90 3.2
2017 08 16 21:00 273.7 0.0 0.00 69.5 20.8 89.8 4.0
2017 08 16 22:00 276.2 0.0 0.00 69.3 20.7 90 3.0
2017 08 16 23:00 Wet 386.7 0.0 0.76 69.8 21.0 90.6 5.3
2017 08 16 24:00 Wet 429.8 0.1 1.27 68.6 20.4 93.4 7.2
2017 08 17 1:00 Wet 391.1 0.0 0.25 68.1 20.1 92.5 5.2
2017 08 17 2:00 Wet 356.0 0.0 0.25 67.8 19.9 92 4.7
2017 08 17 3:00 Wet 357.7 0.0 0.00 66.8 19.3 94.9 4.0
2017 08 17 4:00 Wet 323.6 0.0 0.00 66.4 19.1 95.5 3.8
2017 08 17 5:00 Wet 289.4 0.0 0.00 66.5 19.2 92.7 5.5
2017 08 17 6:00 278.5 0.0 0.00 67.1 19.5 90.7 5.5
2017 08 17 7:00 273.2 0.0 0.00 68.2 20.1 89 6.1
2017 08 17 8:00 271.8 0.0 0.00 69.8 21.0 86.5 7.5
2017 08 17 9:00 271.1 0.0 0.00 71.7 22.1 83 8.6
2017 08 17 10:00 270.2 0.0 0.00 73.5 23.1 78.18 9.7
2017 08 17 11:00 269.2 0.0 0.00 76.4 24.7 72.85 9.4
2017 08 17 12:00 269.0 0.0 0.00 77.7 25.4 69.59 9.6
2017 08 17 13:00 268.8 0.0 0.00 79.3 26.3 65.27 9.4
2017 08 17 14:00 268.7 0.0 0.00 81.2 27.3 60.31 9.5
2017 08 17 15:00 268.6 0.0 0.00 82.3 27.9 53.65 10.5
2017 08 17 16:00 268.5 0.0 0.00 81.2 27.3 53.46 10.2
2017 08 17 17:00 268.3 0.0 0.00 81.6 27.5 52.41 10.0
2017 08 17 18:00 268.6 0.0 0.00 80.4 26.9 54.29 8.7
2017 08 17 19:00 268.9 0.0 0.00 78.1 25.6 58.62 4.9
2017 08 17 20:00 270.2 0.0 0.00 74.2 23.4 68.12 2.6
2017 08 17 21:00 270.8 0.0 0.00 71.4 21.9 72.37 3.0
2017 08 17 22:00 270.8 0.0 0.00 70.3 21.3 72.44 4.1
2017 08 17 23:00 270.8 0.0 0.00 69.8 21.0 70.59 4.1
2017 08 17 24:00 270.8 0.0 0.00 69.3 20.7 70.33 4.2
2017 08 18 1:00 270.8 0.0 0.00 68.2 20.1 73.24 4.1
2017 08 18 2:00 271.3 0.0 0.00 67.2 19.6 76.37 3.8
2017 08 18 3:00 271.7 0.0 0.00 65.8 18.8 80.1 4.0
2017 08 18 4:00 273.8 0.0 0.00 64.1 17.9 84.5 2.6
2017 08 18 5:00 Wet 305.3 0.0 0.00 62.2 16.8 89.8 0.2
2017 08 18 6:00 Wet 356.5 0.0 0.00 62.2 16.8 90 0.1
2017 08 18 7:00 Wet 289.3 0.0 0.00 65.2 18.4 83.7 1.8
2017 08 18 8:00 269.7 0.0 0.00 69.1 20.6 75.8 4.8
2017 08 18 9:00 268.5 0.0 0.00 74.5 23.6 63.63 5.8
2017 08 18 10:00 266.8 0.0 0.00 78.2 25.7 56.36 2.0
2017 08 18 11:00 266.1 0.0 0.00 80.5 26.9 50.67 3.1
2017 08 18 12:00 266.0 0.0 0.00 83.3 28.5 45.8 4.2
2017 08 18 13:00 266.0 0.0 0.00 85.4 29.7 41.89 5.2
2017 08 18 14:00 266.0 0.0 0.00 85.8 29.9 41.39 4.7
2017 08 18 15:00 266.5 0.0 0.00 86.4 30.2 41.79 2.9
2017 08 18 16:00 266.7 0.0 0.00 84.9 29.4 44.4 6.3
2017 08 18 17:00 267.2 0.0 0.00 82.8 28.3 50.63 6.2
2017 08 18 18:00 267.4 0.0 0.00 80.9 27.2 53.84 6.5
2017 08 18 19:00 268.4 0.0 0.00 78.2 25.7 60.72 4.1
2017 08 18 20:00 270.5 0.0 0.00 74.7 23.7 69.53 0.0
2017 08 18 21:00 271.6 0.0 0.00 71.7 22.1 79.9 1.2
2017 08 18 22:00 271.2 0.0 0.00 72.8 22.7 75.84 5.5
2017 08 18 23:00 270.8 0.0 0.00 73.6 23.1 73.68 4.8
2017 08 18 24:00 271.8 0.0 0.00 71.6 22.0 79.54 0.7
2017 08 19 1:00 276.2 0.0 0.00 68.7 20.4 89.1 0.0
2017 08 19 2:00 278.6 0.0 0.00 68.4 20.2 89.8 0.6
2017 08 19 3:00 Wet 297.1 0.0 0.00 68.5 20.3 90.3 0.6
2017 08 19 4:00 Wet 306.4 0.0 0.00 66.8 19.4 93 1.6
2017 08 19 5:00 Wet 339.2 0.0 0.00 65.8 18.8 95.4 0.7
2017 08 19 6:00 Wet 382.5 0.0 0.00 64.9 18.3 96.9 0.3
2017 08 19 7:00 Wet 312.8 0.0 0.00 68.7 20.4 91.2 0.5
2017 08 19 8:00 269.4 0.0 0.00 72.9 22.7 79.66 2.7
2017 08 19 9:00 268.4 0.0 0.00 76.4 24.6 71.53 3.5
2017 08 19 10:00 267.5 0.0 0.00 81.0 27.2 62.48 2.7
2017 08 19 11:00 266.6 0.0 0.00 82.3 27.9 59.73 2.4
2017 08 19 12:00 266.3 0.0 0.00 85.3 29.6 51.66 2.8
2017 08 19 13:00 266.3 0.0 0.00 87.4 30.8 44.49 5.0
2017 08 19 14:00 266.1 0.0 0.00 88.1 31.2 42.1 5.3
2017 08 19 15:00 266.7 0.0 0.00 88.4 31.4 42.84 5.4
2017 08 19 16:00 266.7 0.0 0.00 88.7 31.5 39.92 6.1
2017 08 19 17:00 266.7 0.0 0.00 88.7 31.5 39.56 5.2
2017 08 19 18:00 266.7 0.0 0.00 88.0 31.1 42.36 2.4
2017 08 19 19:00 267.4 0.0 0.00 85.7 29.9 49.59 0.2
2017 08 19 20:00 269.2 0.0 0.00 79.3 26.3 65.11 0.0
2017 08 19 21:00 271.9 0.0 0.00 74.8 23.8 79.68 0.2
2017 08 19 22:00 274.0 0.0 0.00 73.2 22.9 83.7 0.1
2017 08 19 23:00 275.7 0.0 0.00 71.7 22.1 86 0.3
2017 08 19 24:00 Wet 296.3 0.0 0.00 69.4 20.8 92.2 0.2
2017 08 20 1:00 Wet 348.2 0.0 0.00 68.4 20.2 94.7 0.0
2017 08 20 2:00 Wet 388.0 0.0 0.00 67.6 19.8 95.8 0.3
2017 08 20 3:00 Wet 406.3 0.0 0.00 66.7 19.3 96 0.1
2017 08 20 4:00 Wet 423.6 0.0 0.00 66.6 19.2 96.3 0.2
2017 08 20 5:00 Wet 424.2 0.0 0.00 65.7 18.7 96.9 0.1
2017 08 20 6:00 Wet 403.7 0.0 0.00 66.3 19.0 96.9 0.5
2017 08 20 7:00 Wet 320.7 0.0 0.00 68.9 20.5 92 0.4
2017 08 20 8:00 275.3 0.0 0.00 72.2 22.4 86.9 0.3
2017 08 20 9:00 271.8 0.0 0.00 75.3 24.1 79.2 8.1
2017 08 20 10:00 269.4 0.0 0.00 79.4 26.3 59.92 6.3
2017 08 20 11:00 267.9 0.0 0.00 81.4 27.4 52.36 3.5
2017 08 20 12:00 267.2 0.0 0.00 81.9 27.7 53.8 3.5
2017 08 20 13:00 267.3 0.0 0.00 83.6 28.7 52.71 6.8
2017 08 20 14:00 266.8 0.0 0.00 87.6 30.9 45.11 6.5
2017 08 20 15:00 267.2 0.0 0.00 90.0 32.2 42.51 6.0
2017 08 20 16:00 267.2 0.0 0.00 90.6 32.5 43.91 6.1
2017 08 20 17:00 267.6 0.0 0.00 88.1 31.2 50.9 3.8
2017 08 20 18:00 270.4 0.0 0.00 81.4 27.4 63.97 6.7
2017 08 20 19:00 270.5 0.0 0.00 75.8 24.3 76.08 2.8
2017 08 20 20:00 271.4 0.0 0.00 74.7 23.7 79.11 2.2
2017 08 20 21:00 274.0 0.0 0.00 72.1 22.3 86.9 0.7
2017 08 20 22:00 275.0 0.0 0.00 71.3 21.8 89.1 0.6
2017 08 20 23:00 276.7 0.0 0.00 70.3 21.3 92.2 0.2
2017 08 20 24:00 276.2 0.0 0.00 70.4 21.3 91.3 0.0
2017 08 21 1:00 277.9 0.0 0.00 70.0 21.1 92.7 0.2
2017 08 21 2:00 276.1 0.0 0.00 70.5 21.4 91.3 0.3
2017 08 21 3:00 279.5 0.0 0.00 70.2 21.2 91.4 0.7
2017 08 21 4:00 280.8 0.0 0.00 70.2 21.2 92 0.5
2017 08 21 5:00 Wet 308.2 0.0 0.00 68.9 20.5 94.9 0.2
2017 08 21 6:00 Wet 353.4 0.0 0.00 67.3 19.6 97 0.2
2017 08 21 7:00 Wet 353.8 0.0 0.00 69.0 20.6 95.7 0.1
2017 08 21 8:00 274.1 0.0 0.00 75.8 24.4 83.4 0.9
2017 08 21 9:00 268.6 0.0 0.00 83.9 28.8 67.4 6.0
2017 08 21 10:00 267.9 0.0 0.00 87.2 30.7 60.84 6.7
2017 08 21 11:00 267.1 0.0 0.00 89.4 31.9 56.14 6.4
2017 08 21 12:00 267.4 0.0 0.00 89.3 31.8 56.54 5.7
2017 08 21 13:00 268.6 0.0 0.00 85.8 29.9 63.71 4.1
2017 08 21 14:00 268.5 0.0 0.00 85.6 29.8 66.37 5.6
2017 08 21 15:00 268.7 0.0 0.00 86.6 30.3 65.35 5.3
2017 08 21 16:00 Wet 293.8 0.0 0.00 82.1 27.9 65.7 7.0
2017 08 21 17:00 270.1 0.0 0.00 81.2 27.3 67.64 3.8
2017 08 21 18:00 269.9 0.0 0.00 80.3 26.8 72.14 1.1
2017 08 21 19:00 270.6 0.0 0.00 79.6 26.4 75.64 0.7
2017 08 21 20:00 Wet 421.7 0.3 6.86 74.6 23.6 90.6 4.4
2017 08 21 21:00 Wet 325.2 0.0 0.25 72.8 22.7 95.4 1.4
2017 08 21 22:00 Wet 312.5 0.0 0.00 72.8 22.7 94.1 2.6
2017 08 21 23:00 Wet 288.9 0.0 0.00 73.6 23.1 93.4 3.7
2017 08 21 24:00 274.3 0.0 0.00 75.5 24.2 87.3 5.7
2017 08 22 1:00 272.5 0.0 0.00 77.3 25.2 80.8 8.2
2017 08 22 2:00 272.1 0.0 0.00 77.4 25.2 78.47 9.9
2017 08 22 3:00 Wet 442.2 0.1 1.27 69.5 20.8 90.2 6.8
2017 08 22 4:00 Wet 496.1 0.2 5.33 67.6 19.8 96 3.1
2017 08 22 5:00 Wet 508.0 0.2 4.32 67.3 19.6 97 2.1
2017 08 22 6:00 Wet 497.1 0.2 5.59 66.9 19.4 97.3 2.3
2017 08 22 7:00 Wet 431.5 0.0 1.02 67.0 19.4 97.9 3.2
2017 08 22 8:00 Wet 324.7 0.0 0.00 67.7 19.8 96.9 1.3
2017 08 22 9:00 Wet 292.7 0.0 0.00 68.8 20.4 95.6 4.8
2017 08 22 10:00 Wet 374.1 0.0 0.25 69.2 20.7 94.4 5.2
2017 08 22 11:00 Wet 378.3 0.0 0.25 69.1 20.6 91.7 6.4
2017 08 22 12:00 272.0 0.0 0.00 73.0 22.8 79.36 6.0
2017 08 22 13:00 269.5 0.0 0.00 76.5 24.7 70.55 7.2
2017 08 22 14:00 269.2 0.0 0.00 79.0 26.1 61.04 11.4
2017 08 22 15:00 269.1 0.0 0.00 80.2 26.8 56.6 11.3
2017 08 22 16:00 268.7 0.0 0.00 81.1 27.3 51.65 10.2
2017 08 22 17:00 268.6 0.0 0.00 80.1 26.7 50.21 10.3
2017 08 22 18:00 268.0 0.0 0.00 79.3 26.3 45.09 8.4
2017 08 22 19:00 268.5 0.0 0.00 75.6 24.2 51.74 3.8
2017 08 22 20:00 270.1 0.0 0.00 70.7 21.5 63.76 0.8
2017 08 22 21:00 282.0 0.0 0.00 65.9 18.9 79.96 0.0
2017 08 22 22:00 Wet 294.2 0.0 0.00 64.7 18.1 78.95 1.2
2017 08 22 23:00 272.0 0.0 0.00 63.8 17.7 77.36 2.3
2017 08 22 24:00 273.4 0.0 0.00 62.1 16.7 79.69 1.6
2017 08 23 1:00 Wet 286.7 0.0 0.00 60.4 15.8 82 0.6
2017 08 23 2:00 Wet 306.9 0.0 0.00 58.9 14.9 85.3 1.2
2017 08 23 3:00 Wet 334.8 0.0 0.00 57.6 14.2 87.4 1.4
2017 08 23 4:00 Wet 371.0 0.0 0.00 56.3 13.5 90.4 1.6
2017 08 23 5:00 Wet 421.0 0.0 0.00 55.1 12.8 92.8 1.0
2017 08 23 6:00 Wet 478.3 0.0 0.00 54.5 12.5 93.9 0.9
2017 08 23 7:00 Wet 350.1 0.0 0.00 58.3 14.6 83.8 2.0
2017 08 23 8:00 271.2 0.0 0.00 64.1 17.8 70.1 2.4
2017 08 23 9:00 267.9 0.0 0.00 69.0 20.6 60.2 2.7
2017 08 23 10:00 267.0 0.0 0.00 72.8 22.7 52.27 3.8
2017 08 23 11:00 266.4 0.0 0.00 74.7 23.7 43.03 5.3
2017 08 23 12:00 266.0 0.0 0.00 76.0 24.4 37.8 6.9
2017 08 23 13:00 266.0 0.0 0.00 76.7 24.8 36.98 7.0
2017 08 23 14:00 266.1 0.0 0.00 77.7 25.4 36.05 6.4
2017 08 23 15:00 266.7 0.0 0.00 78.4 25.8 37.29 6.0
2017 08 23 16:00 266.7 0.0 0.00 78.7 25.9 37.05 5.2
2017 08 23 17:00 266.7 0.0 0.00 78.5 25.8 37.24 5.3
2017 08 23 18:00 266.7 0.0 0.00 78.1 25.6 38.33 4.4
2017 08 23 19:00 267.4 0.0 0.00 73.6 23.1 45.46 2.0
2017 08 23 20:00 268.5 0.0 0.00 68.7 20.4 55.67 0.7
2017 08 23 21:00 272.7 0.0 0.00 63.7 17.6 73.86 0.6
2017 08 23 22:00 Wet 296.0 0.0 0.00 60.4 15.8 86 0.0
2017 08 23 23:00 Wet 352.2 0.0 0.00 58.7 14.8 91.3 0.1
2017 08 23 24:00 Wet 406.6 0.0 0.00 57.5 14.2 94.3 0.1
2017 08 24 1:00 Wet 432.8 0.0 0.00 56.6 13.7 94.8 0.5
2017 08 24 2:00 Wet 431.0 0.0 0.00 55.7 13.2 96.2 0.3
2017 08 24 3:00 Wet 432.6 0.0 0.00 55.1 12.8 96.5 0.0
2017 08 24 4:00 Wet 424.9 0.0 0.00 54.0 12.2 96.9 0.4
2017 08 24 5:00 Wet 419.2 0.0 0.00 53.5 12.0 97.4 0.3
2017 08 24 6:00 Wet 396.0 0.0 0.00 53.3 11.8 97.8 0.0
2017 08 24 7:00 Wet 314.5 0.0 0.00 56.7 13.7 92.9 0.3
2017 08 24 8:00 269.5 0.0 0.00 63.0 17.2 80.5 0.2
2017 08 24 9:00 267.1 0.0 0.00 69.4 20.8 66.33 0.4
2017 08 24 10:00 266.2 0.0 0.00 73.8 23.2 50.68 2.5
2017 08 24 11:00 265.9 0.0 0.00 75.1 24.0 43.43 4.1
2017 08 24 12:00 265.7 0.0 0.00 76.5 24.7 40.59 4.2
2017 08 24 13:00 265.9 0.0 0.00 77.3 25.2 40.39 5.2
2017 08 24 14:00 266.0 0.0 0.00 77.8 25.4 40.19 3.9
2017 08 24 15:00 266.7 0.0 0.00 78.5 25.8 41.53 4.0
2017 08 24 16:00 266.7 0.0 0.00 78.3 25.7 40.26 4.7
2017 08 24 17:00 266.7 0.0 0.00 78.1 25.6 41.5 3.6
2017 08 24 18:00 267.0 0.0 0.00 76.6 24.8 45.16 3.2
2017 08 24 19:00 267.9 0.0 0.00 73.8 23.3 52.57 2.7
2017 08 24 20:00 268.5 0.0 0.00 71.8 22.1 57.58 4.1
2017 08 24 21:00 269.3 0.0 0.00 69.0 20.5 65.52 1.5
2017 08 24 22:00 273.0 0.0 0.00 65.0 18.3 79.04 0.3
2017 08 24 23:00 278.4 0.0 0.00 63.0 17.3 85.2 0.2
2017 08 24 24:00 280.6 0.0 0.00 62.1 16.7 86.7 0.4
2017 08 25 1:00 Wet 326.7 0.0 0.00 59.9 15.5 94.3 0.0
2017 08 25 2:00 Wet 376.4 0.0 0.00 59.6 15.3 92.9 0.3
2017 08 25 3:00 Wet 428.9 0.0 0.00 58.5 14.7 95.6 0.0
2017 08 25 4:00 Wet 454.3 0.0 0.00 57.5 14.2 95.8 0.0
2017 08 25 5:00 Wet 463.6 0.0 0.00 57.3 14.1 96.2 0.1
2017 08 25 6:00 Wet 411.0 0.0 0.00 59.1 15.1 88.1 2.2
2017 08 25 7:00 Wet 294.7 0.0 0.00 60.7 16.0 85.1 2.3
2017 08 25 8:00 271.0 0.0 0.00 63.0 17.3 80.5 4.0
2017 08 25 9:00 269.0 0.0 0.00 66.9 19.4 72.32 5.0
2017 08 25 10:00 267.9 0.0 0.00 71.0 21.6 61.67 5.8
2017 08 25 11:00 267.6 0.0 0.00 72.8 22.7 55.22 6.2
2017 08 25 12:00 267.1 0.0 0.00 75.1 23.9 51.99 6.1
2017 08 25 13:00 267.1 0.0 0.00 76.2 24.6 49.64 6.4
2017 08 25 14:00 267.2 0.0 0.00 77.2 25.1 48.73 6.6
2017 08 25 15:00 267.4 0.0 0.00 77.5 25.3 48.84 6.9
2017 08 25 16:00 267.4 0.0 0.00 77.8 25.4 47.54 6.9
2017 08 25 17:00 267.3 0.0 0.00 77.4 25.2 46.09 6.4
2017 08 25 18:00 267.4 0.0 0.00 76.1 24.5 48.2 5.4
2017 08 25 19:00 268.4 0.0 0.00 73.4 23.0 56.06 3.1
2017 08 25 20:00 269.3 0.0 0.00 70.4 21.4 64.26 2.2
2017 08 25 21:00 270.4 0.0 0.00 67.3 19.6 72.12 0.7
2017 08 25 22:00 271.2 0.0 0.00 65.3 18.5 75.87 0.7
2017 08 25 23:00 272.0 0.0 0.00 64.0 17.8 75.57 0.8
2017 08 25 24:00 278.2 0.0 0.00 60.9 16.1 83.8 0.2
2017 08 26 1:00 Wet 321.9 0.0 0.00 58.3 14.6 93.3 0.0
2017 08 26 2:00 Wet 374.3 0.0 0.00 57.6 14.2 94 0.2
2017 08 26 3:00 Wet 407.9 0.0 0.00 56.6 13.7 95.7 0.1
2017 08 26 4:00 Wet 424.5 0.0 0.00 56.3 13.5 94.3 0.0
2017 08 26 5:00 Wet 433.2 0.0 0.00 55.8 13.2 96.1 0.0
2017 08 26 6:00 Wet 410.6 0.0 0.00 55.2 12.9 97 0.0
2017 08 26 7:00 Wet 346.3 0.0 0.00 58.0 14.4 93.2 0.3
2017 08 26 8:00 275.3 0.0 0.00 63.0 17.2 82.2 2.3
2017 08 26 9:00 268.6 0.0 0.00 68.1 20.0 71.52 3.2
2017 08 26 10:00 267.5 0.0 0.00 73.2 22.9 60.02 3.5
2017 08 26 11:00 266.7 0.0 0.00 76.9 24.9 50.06 5.9
2017 08 26 12:00 266.5 0.0 0.00 78.9 26.0 45.67 6.4
2017 08 26 13:00 266.0 0.0 0.00 80.5 26.9 42.09 5.1
2017 08 26 14:00 266.3 0.0 0.00 81.0 27.2 41.36 5.9
2017 08 26 15:00 266.7 0.0 0.00 81.6 27.6 38.32 6.3
2017 08 26 16:00 266.7 0.0 0.00 81.7 27.6 39.3 6.1
2017 08 26 17:00 266.7 0.0 0.00 80.7 27.1 42 5.7
2017 08 26 18:00 267.2 0.0 0.00 79.2 26.2 48.97 5.1
2017 08 26 19:00 268.1 0.0 0.00 75.8 24.3 56.09 2.4
2017 08 26 20:00 269.0 0.0 0.00 72.7 22.6 61.31 1.6
2017 08 26 21:00 269.8 0.0 0.00 70.0 21.1 67.19 1.2
2017 08 26 22:00 270.9 0.0 0.00 67.7 19.9 73.54 0.9
2017 08 26 23:00 274.3 0.0 0.00 64.6 18.1 84.1 0.0
2017 08 26 24:00 278.3 0.0 0.00 64.0 17.8 85.2 0.0
2017 08 27 1:00 Wet 284.8 0.0 0.00 62.6 17.0 89.1 0.6
2017 08 27 2:00 Wet 314.1 0.0 0.00 60.6 15.9 94.4 0.1
2017 08 27 3:00 Wet 368.8 0.0 0.00 59.6 15.4 96 0.0
2017 08 27 4:00 Wet 408.4 0.0 0.00 58.4 14.7 97.2 0.0
2017 08 27 5:00 Wet 420.6 0.0 0.00 58.9 14.9 95.8 0.0
2017 08 27 6:00 Wet 401.6 0.0 0.00 57.7 14.3 96.5 0.3
2017 08 27 7:00 Wet 324.0 0.0 0.00 61.5 16.4 89.2 0.2
2017 08 27 8:00 270.1 0.0 0.00 66.4 19.1 78.26 1.5
2017 08 27 9:00 267.8 0.0 0.00 71.5 22.0 63.2 3.0
2017 08 27 10:00 266.2 0.0 0.00 76.8 24.9 52.43 2.1
2017 08 27 11:00 265.5 0.0 0.00 80.2 26.8 43.7 2.8
2017 08 27 12:00 265.2 0.0 0.00 82.1 27.8 39.18 3.8
2017 08 27 13:00 265.3 0.0 0.00 83.3 28.5 38.62 4.4
2017 08 27 14:00 265.5 0.0 0.00 83.1 28.4 40.27 4.8
2017 08 27 15:00 266.0 0.0 0.00 82.5 28.1 41.88 4.5
2017 08 27 16:00 266.4 0.0 0.00 82.3 28.0 43.86 6.9
2017 08 27 17:00 266.9 0.0 0.00 80.5 26.9 47.87 6.6
2017 08 27 18:00 268.0 0.0 0.00 76.9 24.9 60.91 6.8
2017 08 27 19:00 269.1 0.0 0.00 73.7 23.1 70.87 4.9
2017 08 27 20:00 270.1 0.0 0.00 71.4 21.9 76.7 3.4
2017 08 27 21:00 Wet 301.1 0.0 0.00 70.0 21.1 80.9 1.9
2017 08 27 22:00 273.5 0.0 0.00 68.3 20.2 85.6 2.1
2017 08 27 23:00 274.0 0.0 0.00 67.2 19.6 88.3 2.1
2017 08 27 24:00 273.0 0.0 0.00 67.4 19.6 87.4 1.7
2017 08 28 1:00 283.7 0.0 0.00 65.9 18.8 91.8 1.6
2017 08 28 2:00 276.5 0.0 0.00 65.6 18.7 92.8 3.1
2017 08 28 3:00 278.0 0.0 0.00 65.2 18.4 94 3.1
2017 08 28 4:00 Wet 301.3 0.0 0.00 64.3 18.0 95.7 3.6
2017 08 28 5:00 Wet 327.8 0.0 0.00 63.8 17.7 97.4 4.0
2017 08 28 6:00 Wet 332.3 0.0 0.00 63.4 17.5 98.3 3.7
2017 08 28 7:00 Wet 304.1 0.0 0.00 63.4 17.5 98.1 2.4
2017 08 28 8:00 273.6 0.0 0.00 64.6 18.1 94 2.1
2017 08 28 9:00 270.6 0.0 0.00 67.3 19.6 87.1 2.3
2017 08 28 10:00 268.1 0.0 0.00 73.7 23.2 70.4 2.1
2017 08 28 11:00 267.2 0.0 0.00 78.1 25.6 59.6 2.9
2017 08 28 12:00 267.0 0.0 0.00 79.9 26.6 54.44 3.2
2017 08 28 13:00 267.0 0.0 0.00 81.1 27.3 52.8 3.8
2017 08 28 14:00 267.4 0.0 0.00 80.7 27.0 53.36 3.4
2017 08 28 15:00 267.4 0.0 0.00 81.7 27.6 49.4 4.7
2017 08 28 16:00 267.4 0.0 0.00 83.0 28.3 47.72 6.0
2017 08 28 17:00 267.4 0.0 0.00 82.9 28.3 47.07 6.2
2017 08 28 18:00 268.2 0.0 0.00 76.7 24.8 60.64 4.9
2017 08 28 19:00 269.6 0.0 0.00 72.5 22.5 70.46 1.6
2017 08 28 20:00 270.4 0.0 0.00 70.4 21.4 75.8 2.8
2017 08 28 21:00 273.2 0.0 0.00 67.1 19.5 85.9 1.4
2017 08 28 22:00 275.1 0.0 0.00 66.3 19.1 88 2.1
2017 08 28 23:00 275.0 0.0 0.00 66.1 19.0 87 2.5
2017 08 28 24:00 274.0 0.0 0.00 65.2 18.4 86.8 3.9
2017 08 29 1:00 280.6 0.0 0.00 63.4 17.5 90.9 2.1
2017 08 29 2:00 Wet 333.4 0.0 0.00 61.4 16.4 95.9 1.6
2017 08 29 3:00 Wet 378.8 0.0 0.00 60.7 15.9 96.4 2.2
2017 08 29 4:00 Wet 396.7 0.0 0.00 60.1 15.6 95.4 1.6
2017 08 29 5:00 Wet 391.5 0.0 0.00 59.8 15.4 96.1 2.9
2017 08 29 6:00 Wet 371.3 0.0 0.00 59.6 15.4 95.7 3.6
2017 08 29 7:00 Wet 326.4 0.0 0.00 59.5 15.3 96.7 1.8
2017 08 29 8:00 Wet 287.8 0.0 0.00 60.4 15.8 98 2.2
2017 08 29 9:00 279.6 0.0 0.00 63.2 17.4 93.6 2.4
2017 08 29 10:00 271.1 0.0 0.00 67.5 19.7 82.6 2.4
2017 08 29 11:00 269.6 0.0 0.00 70.4 21.4 75.75 2.2
2017 08 29 12:00 267.8 0.0 0.00 75.1 23.9 64.42 3.2
2017 08 29 13:00 267.7 0.0 0.00 78.1 25.6 53.98 3.7
2017 08 29 14:00 267.2 0.0 0.00 80.3 26.8 48.13 4.1
2017 08 29 15:00 267.5 0.0 0.00 80.6 27.0 46.53 4.3
2017 08 29 16:00 267.5 0.0 0.00 80.5 26.9 45.13 3.9
2017 08 29 17:00 267.9 0.0 0.00 79.6 26.5 49.35 4.5
2017 08 29 18:00 268.0 0.0 0.00 79.3 26.3 50.14 5.1
2017 08 29 19:00 269.0 0.0 0.00 74.6 23.7 60.8 2.5
2017 08 29 20:00 270.4 0.0 0.00 70.9 21.6 70.64 0.8
2017 08 29 21:00 271.2 0.0 0.00 69.0 20.5 76.8 2.2
2017 08 29 22:00 276.9 0.0 0.00 65.1 18.4 87.5 0.3
2017 08 29 23:00 Wet 323.5 0.0 0.00 62.5 17.0 94.9 0.0
2017 08 29 24:00 Wet 367.9 0.0 0.00 62.0 16.6 95.1 0.2
2017 08 30 1:00 Wet 395.9 0.0 0.00 60.9 16.1 95.9 0.9
2017 08 30 2:00 Wet 387.5 0.0 0.00 60.6 15.9 96.5 2.0
2017 08 30 3:00 Wet 382.3 0.0 0.00 59.6 15.3 97 1.1
2017 08 30 4:00 Wet 373.6 0.0 0.00 60.2 15.7 96.3 2.8
2017 08 30 5:00 Wet 358.8 0.0 0.00 60.3 15.7 95.8 4.5
2017 08 30 6:00 Wet 361.5 0.0 0.00 58.9 14.9 96.8 0.8
2017 08 30 7:00 Wet 299.8 0.0 0.00 61.3 16.3 92.4 0.6
2017 08 30 8:00 269.5 0.0 0.00 67.6 19.8 80.2 0.3
2017 08 30 9:00 268.4 0.0 0.00 73.5 23.1 68.26 2.2
2017 08 30 10:00 267.7 0.0 0.00 76.9 24.9 61.01 3.7
2017 08 30 11:00 267.3 0.0 0.00 79.3 26.3 51.68 5.7
2017 08 30 12:00 266.7 0.0 0.00 80.1 26.7 48.96 5.4
2017 08 30 13:00 266.6 0.0 0.00 81.9 27.7 44.97 4.9
2017 08 30 14:00 266.8 0.0 0.00 81.3 27.4 45.13 5.6
2017 08 30 15:00 266.9 0.0 0.00 81.0 27.2 44.87 5.2
2017 08 30 16:00 267.0 0.0 0.00 82.1 27.8 42.69 5.0
2017 08 30 17:00 267.3 0.0 0.00 82.0 27.8 45.01 5.6
2017 08 30 18:00 267.4 0.0 0.00 80.4 26.9 48.48 4.3
2017 08 30 19:00 268.3 0.0 0.00 76.9 25.0 56.33 2.9
2017 08 30 20:00 269.0 0.0 0.00 73.9 23.3 64.47 2.8
2017 08 30 21:00 269.9 0.0 0.00 71.4 21.9 70.68 2.3
2017 08 30 22:00 270.2 0.0 0.00 69.7 20.9 74.02 3.2
2017 08 30 23:00 270.7 0.0 0.00 68.9 20.5 74.89 2.2
2017 08 30 24:00 270.9 0.0 0.00 68.0 20.0 77.3 2.5
2017 08 31 1:00 275.4 0.0 0.00 64.6 18.1 85.2 0.9
2017 08 31 2:00 281.2 0.0 0.00 63.2 17.3 88.5 1.2
2017 08 31 3:00 Wet 308.5 0.0 0.00 60.6 15.9 94 0.5
2017 08 31 4:00 Wet 361.4 0.0 0.00 60.0 15.6 96.2 2.0
2017 08 31 5:00 Wet 380.7 0.0 0.00 60.0 15.5 95.1 2.7
2017 08 31 6:00 Wet 381.9 0.0 0.00 59.7 15.4 94.2 1.8
2017 08 31 7:00 Wet 368.9 0.0 0.00 59.2 15.1 94.5 1.3
2017 08 31 8:00 Wet 292.5 0.0 0.00 63.9 17.7 85.3 2.2
2017 08 31 9:00 270.9 0.0 0.00 67.2 19.5 76.98 4.2
2017 08 31 10:00 269.8 0.0 0.00 70.2 21.2 69.65 6.4
2017 08 31 11:00 268.9 0.0 0.00 73.3 22.9 62.39 7.1
2017 08 31 12:00 268.4 0.0 0.00 75.2 24.0 57.66 7.9
2017 08 31 13:00 267.9 0.0 0.00 77.1 25.1 52.1 8.7
2017 08 31 14:00 267.4 0.0 0.00 77.8 25.5 50.58 7.9
2017 08 31 15:00 267.5 0.0 0.00 78.6 25.9 48.94 8.0
2017 08 31 16:00 268.0 0.0 0.00 78.1 25.6 54.42 8.8
2017 08 31 17:00 268.3 0.0 0.00 76.6 24.8 57.15 8.4
2017 08 31 18:00 268.8 0.0 0.00 75.2 24.0 61.72 7.1
2017 08 31 19:00 269.6 0.0 0.00 72.9 22.7 67.11 5.7
2017 08 31 20:00 270.1 0.0 0.00 70.7 21.5 70.74 5.7
2017 08 31 21:00 270.1 0.0 0.00 69.6 20.9 71.01 6.0
2017 08 31 22:00 270.2 0.0 0.00 68.1 20.1 69.17 5.9
2017 08 31 23:00 270.2 0.0 0.00 66.3 19.1 72.26 6.6
2017 08 31 24:00 270.8 0.0 0.00 64.6 18.1 77.04 7.0
2017 09 01 1:00 271.3 0.0 0.00 62.8 17.1 81 5.1
2017 09 01 2:00 271.7 0.0 0.00 61.3 16.3 83.5 4.4
2017 09 01 3:00 271.8 0.0 0.00 60.4 15.8 85.2 4.3
2017 09 01 4:00 271.9 0.0 0.00 59.6 15.3 84.9 4.9
2017 09 01 5:00 272.4 0.0 0.00 58.7 14.9 86.1 4.5
2017 09 01 6:00 272.9 0.0 0.00 58.1 14.5 87.8 3.8
2017 09 01 7:00 271.8 0.0 0.00 59.5 15.3 83.9 4.2
2017 09 01 8:00 270.4 0.0 0.00 62.9 17.2 73.1 6.4
2017 09 01 9:00 269.1 0.0 0.00 65.1 18.4 65.51 8.0
2017 09 01 10:00 268.2 0.0 0.00 68.3 20.1 58.77 7.1
2017 09 01 11:00 267.5 0.0 0.00 70.2 21.2 53.88 7.3
2017 09 01 12:00 267.0 0.0 0.00 73.6 23.1 47.55 6.5
2017 09 01 13:00 266.7 0.0 0.00 74.6 23.7 42.52 7.9
2017 09 01 14:00 266.6 0.0 0.00 77.1 25.1 37.5 7.5
2017 09 01 15:00 266.7 0.0 0.00 77.9 25.5 35.26 7.2
2017 09 01 16:00 266.7 0.0 0.00 76.0 24.4 38.81 6.6
2017 09 01 17:00 267.1 0.0 0.00 74.4 23.6 42.4 6.5
2017 09 01 18:00 267.4 0.0 0.00 72.9 22.7 47.22 5.2
2017 09 01 19:00 268.2 0.0 0.00 68.9 20.5 53.26 4.1
2017 09 01 20:00 268.9 0.0 0.00 65.1 18.4 61.14 2.5
2017 09 01 21:00 270.0 0.0 0.00 61.7 16.5 68.76 1.7
2017 09 01 22:00 271.6 0.0 0.00 58.6 14.8 76.44 2.0
2017 09 01 23:00 276.0 0.0 0.00 55.9 13.3 83.4 0.7
2017 09 01 24:00 Wet 325.3 0.0 0.00 52.6 11.5 93 0.9
2017 09 02 1:00 Wet 374.1 0.0 0.00 51.7 10.9 93.8 1.0
2017 09 02 2:00 Wet 403.2 0.0 0.00 50.3 10.2 95.3 0.4
2017 09 02 3:00 Wet 398.5 0.0 0.00 49.0 9.4 97 1.4
2017 09 02 4:00 Wet 389.7 0.0 0.00 47.8 8.8 96.1 0.3
2017 09 02 5:00 Wet 386.9 0.0 0.00 46.8 8.2 97.1 1.1
2017 09 02 6:00 Wet 386.1 0.0 0.00 45.9 7.7 97.3 0.7
2017 09 02 7:00 Wet 315.4 0.0 0.00 48.8 9.3 93 0.2
2017 09 02 8:00 269.7 0.0 0.00 56.2 13.5 81.2 1.7
2017 09 02 9:00 267.3 0.0 0.00 63.0 17.2 64.59 1.3
2017 09 02 10:00 266.1 0.0 0.00 67.0 19.4 52.1 2.2
2017 09 02 11:00 265.9 0.0 0.00 71.6 22.0 45.81 3.4
2017 09 02 12:00 265.6 0.0 0.00 73.7 23.1 42.03 4.1
2017 09 02 13:00 265.5 0.0 0.00 75.7 24.3 37.37 4.0
2017 09 02 14:00 265.3 0.0 0.00 78.3 25.7 31.93 3.9
2017 09 02 15:00 265.4 0.0 0.00 79.3 26.3 29.85 4.3
2017 09 02 16:00 265.9 0.0 0.00 80.0 26.6 32.29 5.0
2017 09 02 17:00 266.0 0.0 0.00 79.3 26.3 36.5 4.4
2017 09 02 18:00 266.3 0.0 0.00 77.7 25.4 42.24 2.6
2017 09 02 19:00 267.6 0.0 0.00 73.9 23.3 51.27 0.6
2017 09 02 20:00 268.7 0.0 0.00 70.8 21.5 58.15 0.0
2017 09 02 21:00 269.7 0.0 0.00 67.5 19.7 70.82 0.0
2017 09 02 22:00 269.8 0.0 0.00 67.9 19.9 68.18 0.3
2017 09 02 23:00 270.1 0.0 0.00 67.1 19.5 69.58 0.0
2017 09 02 24:00 270.8 0.0 0.00 65.8 18.8 73.49 0.0
2017 09 03 1:00 270.8 0.0 0.00 64.9 18.3 78.15 0.0
2017 09 03 2:00 270.8 0.0 0.00 65.9 18.8 75.46 0.0
2017 09 03 3:00 272.5 0.0 0.00 64.4 18.0 82.7 0.0
2017 09 03 4:00 272.1 0.0 0.00 65.0 18.4 82.9 0.2
2017 09 03 5:00 271.9 0.0 0.00 65.0 18.4 82.4 2.1
2017 09 03 6:00 274.8 0.0 0.00 62.8 17.1 89.7 0.8
2017 09 03 7:00 271.7 0.0 0.00 65.6 18.7 83.3 1.0
2017 09 03 8:00 269.0 0.0 0.00 70.6 21.4 73.52 0.6
2017 09 03 9:00 268.3 0.0 0.00 74.5 23.6 67.74 1.6
2017 09 03 10:00 267.5 0.0 0.00 77.5 25.3 62.72 3.5
2017 09 03 11:00 266.9 0.0 0.00 79.8 26.6 57.07 3.5
2017 09 03 12:00 266.1 0.0 0.00 82.9 28.3 44.98 2.7
2017 09 03 13:00 265.3 0.0 0.00 85.0 29.4 33.97 4.0
2017 09 03 14:00 264.7 0.0 0.00 86.8 30.4 25.06 4.5
2017 09 03 15:00 264.6 0.0 0.00 87.2 30.6 25.04 4.6
2017 09 03 16:00 264.6 0.0 0.00 86.4 30.2 24.83 4.4
2017 09 03 17:00 264.7 0.0 0.00 85.3 29.6 26.66 4.4
2017 09 03 18:00 265.4 0.0 0.00 83.2 28.4 33.11 3.4
2017 09 03 19:00 266.5 0.0 0.00 78.9 26.1 41.48 0.7
2017 09 03 20:00 268.8 0.0 0.00 71.5 22.0 61.42 0.1
2017 09 03 21:00 270.1 0.0 0.00 68.3 20.1 69.67 0.0
2017 09 03 22:00 271.1 0.0 0.00 66.3 19.1 73.91 0.2
2017 09 03 23:00 272.9 0.0 0.00 63.9 17.7 81 0.1
2017 09 03 24:00 274.1 0.0 0.00 62.8 17.1 84.7 0.2
2017 09 04 1:00 275.7 0.0 0.00 61.8 16.5 88.4 0.0
2017 09 04 2:00 282.5 0.0 0.00 60.5 15.8 90.9 0.0
2017 09 04 3:00 Wet 299.7 0.0 0.00 60.0 15.6 91.7 0.0
2017 09 04 4:00 Wet 331.6 0.0 0.00 59.1 15.1 93.3 0.0
2017 09 04 5:00 Wet 352.5 0.0 0.00 59.4 15.2 93.3 0.8
2017 09 04 6:00 Wet 366.9 0.0 0.00 59.6 15.4 93.2 0.2
2017 09 04 7:00 Wet 321.2 0.0 0.00 63.0 17.3 89 0.2
2017 09 04 8:00 270.0 0.0 0.00 73.1 22.8 76.14 3.0
2017 09 04 9:00 268.7 0.0 0.00 78.7 26.0 65.33 7.8
2017 09 04 10:00 267.8 0.0 0.00 82.6 28.1 58.69 9.6
2017 09 04 11:00 267.1 0.0 0.00 85.9 29.9 49.95 11.7
2017 09 04 12:00 266.5 0.0 0.00 88.6 31.4 43.58 12.0
2017 09 04 13:00 266.1 0.0 0.00 90.5 32.5 41.21 11.3
2017 09 04 14:00 266.0 0.0 0.00 91.6 33.1 38.61 12.2
2017 09 04 15:00 266.0 0.0 0.00 91.7 33.2 39.78 11.8
2017 09 04 16:00 266.5 0.0 0.00 90.5 32.5 44.28 9.8
2017 09 04 17:00 267.0 0.0 0.00 88.7 31.5 48.91 10.1
2017 09 04 18:00 Wet 374.3 0.5 12.19 77.6 25.4 84.1 4.9
2017 09 04 19:00 280.8 0.0 0.00 75.4 24.1 87.3 2.8
2017 09 04 20:00 271.0 0.0 0.00 74.2 23.4 75.43 6.1
2017 09 04 21:00 270.9 0.0 0.00 71.9 22.2 74.13 3.8
2017 09 04 22:00 270.4 0.0 0.00 70.3 21.3 67.54 4.7
2017 09 04 23:00 270.3 0.0 0.00 67.6 19.8 68.47 3.5
2017 09 04 24:00 270.8 0.0 0.00 65.3 18.5 69.92 3.8
2017 09 05 1:00 270.8 0.0 0.00 63.6 17.5 72.83 3.5
2017 09 05 2:00 270.8 0.0 0.00 63.5 17.5 72.55 4.8
2017 09 05 3:00 270.8 0.0 0.00 63.2 17.4 72.8 7.1
2017 09 05 4:00 270.8 0.0 0.00 61.8 16.6 76.66 6.0
2017 09 05 5:00 271.5 0.0 0.00 60.2 15.7 80.3 5.9
2017 09 05 6:00 271.5 0.0 0.00 59.2 15.1 81.8 7.5
2017 09 05 7:00 271.4 0.0 0.00 59.4 15.2 79.82 7.9
2017 09 05 8:00 269.5 0.0 0.00 62.7 17.0 68.6 8.4
2017 09 05 9:00 268.4 0.0 0.00 66.0 18.9 57.94 9.2
2017 09 05 10:00 267.1 0.0 0.00 69.6 20.9 46.1 9.1
2017 09 05 11:00 266.4 0.0 0.00 70.9 21.6 39.16 11.8
2017 09 05 12:00 266.1 0.0 0.00 72.1 22.3 36.21 12.4
2017 09 05 13:00 265.8 0.0 0.00 72.5 22.5 33.48 12.2
2017 09 05 14:00 265.6 0.0 0.00 73.1 22.9 31.7 13.5
2017 09 05 15:00 265.6 0.0 0.00 73.5 23.0 29.37 11.8
2017 09 05 16:00 265.8 0.0 0.00 72.4 22.4 30.96 10.1
2017 09 05 17:00 266.0 0.0 0.00 71.3 21.9 31.66 10.8
2017 09 05 18:00 266.1 0.0 0.00 70.3 21.3 32.8 8.9
2017 09 05 19:00 266.6 0.0 0.00 65.7 18.7 39.1 4.9
2017 09 05 20:00 267.6 0.0 0.00 61.5 16.4 47.75 2.2
2017 09 05 21:00 268.7 0.0 0.00 58.4 14.7 55.94 0.7
2017 09 05 22:00 269.9 0.0 0.00 56.4 13.6 60.99 0.1
2017 09 05 23:00 271.8 0.0 0.00 53.6 12.0 71.17 0.0
2017 09 05 24:00 276.8 0.0 0.00 51.8 11.0 76.75 0.6
2017 09 06 1:00 273.9 0.0 0.00 50.5 10.3 77.94 1.5
2017 09 06 2:00 274.2 0.0 0.00 50.0 10.0 78.19 1.8
2017 09 06 3:00 275.3 0.0 0.00 48.9 9.4 80.7 1.9
2017 09 06 4:00 278.7 0.0 0.00 48.1 9.0 81.7 1.8
2017 09 06 5:00 281.8 0.0 0.00 47.6 8.7 83 1.5
2017 09 06 6:00 Wet 301.2 0.0 0.00 47.4 8.6 82.5 0.8
2017 09 06 7:00 272.8 0.0 0.00 50.4 10.2 76.82 3.7
2017 09 06 8:00 268.9 0.0 0.00 54.6 12.6 69.23 6.3
2017 09 06 9:00 268.1 0.0 0.00 58.9 15.0 60.27 7.2
2017 09 06 10:00 267.3 0.0 0.00 63.1 17.3 49.83 9.4
2017 09 06 11:00 266.6 0.0 0.00 65.9 18.8 42.84 10.5
2017 09 06 12:00 266.4 0.0 0.00 66.7 19.3 41.58 12.6
2017 09 06 13:00 266.5 0.0 0.00 66.7 19.3 40.67 12.4
2017 09 06 14:00 266.5 0.0 0.00 67.3 19.6 40.54 10.9
2017 09 06 15:00 266.4 0.0 0.00 67.7 19.8 39.2 9.0
2017 09 06 16:00 266.7 0.0 0.00 67.4 19.7 39.5 7.5
2017 09 06 17:00 266.8 0.0 0.00 67.5 19.7 38.68 7.0
2017 09 06 18:00 267.0 0.0 0.00 64.7 18.1 42.38 3.6
2017 09 06 19:00 268.4 0.0 0.00 59.6 15.3 55.15 0.2
2017 09 06 20:00 271.4 0.0 0.00 55.0 12.8 71.19 0.0
2017 09 06 21:00 Wet 285.1 0.0 0.00 51.8 11.0 83.6 0.1
2017 09 06 22:00 Wet 319.7 0.0 0.00 50.4 10.2 87.5 0.2
2017 09 06 23:00 Wet 360.4 0.0 0.00 49.3 9.6 89.5 0.0
2017 09 06 24:00 Wet 398.0 0.0 0.00 47.8 8.8 93.4 0.4
2017 09 07 1:00 Wet 423.7 0.0 0.00 46.9 8.3 94.1 0.3
2017 09 07 2:00 Wet 412.5 0.0 0.00 46.0 7.8 95.9 0.1
2017 09 07 3:00 Wet 401.8 0.0 0.00 44.8 7.1 96.5 0.3
2017 09 07 4:00 Wet 390.6 0.0 0.00 44.6 7.0 96.1 0.1
2017 09 07 5:00 Wet 384.2 0.0 0.00 43.6 6.4 96.7 0.1
2017 09 07 6:00 Wet 379.0 0.0 0.00 43.5 6.4 96.8 0.0
2017 09 07 7:00 Wet 313.8 0.0 0.00 46.5 8.1 92.5 0.0
2017 09 07 8:00 268.2 0.0 0.00 56.4 13.6 74.12 0.0
2017 09 07 9:00 266.7 0.0 0.00 62.5 17.0 61.7 2.1
2017 09 07 10:00 266.0 0.0 0.00 67.5 19.7 45.53 5.0
2017 09 07 11:00 265.6 0.0 0.00 69.7 21.0 38.98 6.2
2017 09 07 12:00 265.2 0.0 0.00 71.3 21.9 33.84 7.3
2017 09 07 13:00 265.1 0.0 0.00 72.7 22.6 32.71 7.6
2017 09 07 14:00 265.4 0.0 0.00 72.7 22.6 31.81 6.8
2017 09 07 15:00 265.3 0.0 0.00 74.0 23.3 30.17 6.2
2017 09 07 16:00 265.3 0.0 0.00 74.6 23.7 29.64 5.8
2017 09 07 17:00 265.4 0.0 0.00 73.9 23.3 30.57 6.3
2017 09 07 18:00 265.8 0.0 0.00 72.1 22.3 34.19 3.7
2017 09 07 19:00 267.3 0.0 0.00 67.2 19.5 46.06 0.3
2017 09 07 20:00 268.9 0.0 0.00 61.5 16.4 59.73 0.0
2017 09 07 21:00 271.1 0.0 0.00 57.5 14.2 72.29 0.0
2017 09 07 22:00 279.8 0.0 0.00 54.8 12.7 83 0.0
2017 09 07 23:00 Wet 312.1 0.0 0.00 52.7 11.5 89.6 0.0
2017 09 07 24:00 Wet 360.5 0.0 0.00 51.3 10.7 92.7 0.0
2017 09 08 1:00 Wet 404.1 0.0 0.00 50.6 10.3 94.4 0.1
2017 09 08 2:00 Wet 423.7 0.0 0.00 49.6 9.8 94.8 0.5
2017 09 08 3:00 Wet 405.1 0.0 0.00 48.6 9.2 95.5 0.0
2017 09 08 4:00 Wet 386.3 0.0 0.00 47.7 8.7 96.6 0.1
2017 09 08 5:00 Wet 382.1 0.0 0.00 47.2 8.4 97 0.1
2017 09 08 6:00 Wet 379.6 0.0 0.00 46.3 7.9 97.2 0.0
2017 09 08 7:00 Wet 322.8 0.0 0.00 49.4 9.7 94 0.0
2017 09 08 8:00 270.3 0.0 0.00 57.7 14.3 76.84 0.4
2017 09 08 9:00 266.8 0.0 0.00 65.6 18.6 60.5 1.2
2017 09 08 10:00 265.8 0.0 0.00 72.7 22.6 46.84 3.1
2017 09 08 11:00 264.9 0.0 0.00 76.4 24.6 36.75 4.3
2017 09 08 12:00 264.6 0.0 0.00 78.8 26.0 34.3 3.9
2017 09 08 13:00 264.6 0.0 0.00 80.9 27.2 30.78 3.2
2017 09 08 14:00 264.6 0.0 0.00 82.2 27.9 30.18 3.4
2017 09 08 15:00 265.0 0.0 0.00 82.6 28.1 30.9 4.5
2017 09 08 16:00 265.3 0.0 0.00 82.2 27.9 32.11 5.4
2017 09 08 17:00 265.5 0.0 0.00 81.1 27.3 34.09 5.5
2017 09 08 18:00 266.0 0.0 0.00 78.3 25.7 38.74 3.5
2017 09 08 19:00 267.1 0.0 0.00 73.6 23.1 46.97 0.4
2017 09 08 20:00 267.9 0.0 0.00 70.4 21.3 53.35 0.4
2017 09 08 21:00 269.0 0.0 0.00 66.8 19.3 61.47 0.0
2017 09 08 22:00 270.6 0.0 0.00 63.6 17.6 72.24 0.0
2017 09 08 23:00 271.2 0.0 0.00 62.2 16.8 76.12 0.8
2017 09 08 24:00 273.6 0.0 0.00 60.0 15.5 82.7 0.4
2017 09 09 1:00 279.1 0.0 0.00 58.1 14.5 88.9 0.2
2017 09 09 2:00 Wet 298.1 0.0 0.00 57.7 14.3 88.6 0.0
2017 09 09 3:00 Wet 315.7 0.0 0.00 56.3 13.5 91.6 0.0
2017 09 09 4:00 Wet 340.2 0.0 0.00 56.6 13.7 89.5 0.1
2017 09 09 5:00 Wet 356.2 0.0 0.00 54.5 12.5 94.3 0.1
2017 09 09 6:00 Wet 377.6 0.0 0.00 55.0 12.8 94.5 0.0
2017 09 09 7:00 Wet 354.0 0.0 0.00 56.8 13.8 91.1 0.3
2017 09 09 8:00 279.2 0.0 0.00 60.1 15.6 86.5 2.3
2017 09 09 9:00 269.2 0.0 0.00 66.1 18.9 71.82 3.2
2017 09 09 10:00 267.7 0.0 0.00 71.2 21.8 59.19 2.7
2017 09 09 11:00 266.1 0.0 0.00 77.6 25.3 47.02 4.2
2017 09 09 12:00 265.6 0.0 0.00 80.2 26.8 39.33 5.7
2017 09 09 13:00 265.5 0.0 0.00 81.2 27.3 37.69 5.5
2017 09 09 14:00 265.3 0.0 0.00 81.7 27.6 35.48 5.2
2017 09 09 15:00 265.5 0.0 0.00 82.3 27.9 34.53 4.0
2017 09 09 16:00 265.6 0.0 0.00 82.6 28.1 33.52 4.5
2017 09 09 17:00 265.9 0.0 0.00 81.5 27.5 35.63 4.2
2017 09 09 18:00 266.1 0.0 0.00 78.9 26.0 40.19 4.2
2017 09 09 19:00 267.2 0.0 0.00 74.3 23.5 47.96 2.7
2017 09 09 20:00 268.0 0.0 0.00 70.5 21.4 55.58 0.6
2017 09 09 21:00 270.3 0.0 0.00 65.7 18.7 68.25 0.4
2017 09 09 22:00 274.2 0.0 0.00 61.7 16.5 80.5 0.0
2017 09 09 23:00 279.6 0.0 0.00 59.9 15.5 83.2 0.8
2017 09 09 24:00 Wet 307.9 0.0 0.00 57.2 14.0 91.2 0.1
2017 09 10 1:00 Wet 323.9 0.0 0.00 58.8 14.9 83.4 0.4
2017 09 10 2:00 Wet 343.2 0.0 0.00 55.2 12.9 94.5 0.1
2017 09 10 3:00 Wet 379.7 0.0 0.00 54.9 12.7 94.9 0.0
2017 09 10 4:00 Wet 402.9 0.0 0.00 54.4 12.4 95.8 0.0
2017 09 10 5:00 Wet 387.1 0.0 0.00 53.5 11.9 96.5 0.0
2017 09 10 6:00 Wet 390.7 0.0 0.00 53.3 11.8 96.8 0.0
2017 09 10 7:00 Wet 327.9 0.0 0.00 55.9 13.3 91.6 0.2
2017 09 10 8:00 273.4 0.0 0.00 61.9 16.6 78.4 4.1
2017 09 10 9:00 268.5 0.0 0.00 66.5 19.2 64.54 5.9
2017 09 10 10:00 267.3 0.0 0.00 70.2 21.2 55.6 6.0
2017 09 10 11:00 266.5 0.0 0.00 73.3 23.0 49.14 5.7
2017 09 10 12:00 266.0 0.0 0.00 75.3 24.1 44.15 6.7
2017 09 10 13:00 266.0 0.0 0.00 76.3 24.6 41.57 6.5
2017 09 10 14:00 265.9 0.0 0.00 77.3 25.2 38.93 6.0
2017 09 10 15:00 266.0 0.0 0.00 77.7 25.4 36.31 6.3
2017 09 10 16:00 266.0 0.0 0.00 77.4 25.2 34.26 6.1
2017 09 10 17:00 266.0 0.0 0.00 76.4 24.6 33.62 6.0
2017 09 10 18:00 266.0 0.0 0.00 73.7 23.2 35.45 4.6
2017 09 10 19:00 267.1 0.0 0.00 68.4 20.2 43.16 0.9
2017 09 10 20:00 267.8 0.0 0.00 65.1 18.4 49.04 0.1
2017 09 10 21:00 271.2 0.0 0.00 58.1 14.5 69.3 0.0
2017 09 10 22:00 273.3 0.0 0.00 55.2 12.9 78.29 1.6
2017 09 10 23:00 282.1 0.0 0.00 53.0 11.7 84 0.2
2017 09 10 24:00 Wet 314.5 0.0 0.00 51.4 10.8 87 1.1
2017 09 11 1:00 Wet 351.3 0.0 0.00 49.9 9.9 90.7 0.3
2017 09 11 2:00 Wet 386.4 0.0 0.00 49.0 9.4 91.5 0.2
2017 09 11 3:00 Wet 412.7 0.0 0.00 47.6 8.7 94.6 0.2
2017 09 11 4:00 Wet 399.6 0.0 0.00 46.2 7.9 96 0.0
2017 09 11 5:00 Wet 395.4 0.0 0.00 45.6 7.5 96.2 0.5
2017 09 11 6:00 Wet 386.1 0.0 0.00 44.7 7.0 95.9 0.0
2017 09 11 7:00 Wet 327.2 0.0 0.00 47.3 8.5 92.1 0.5
2017 09 11 8:00 271.9 0.0 0.00 55.3 13.0 77.11 0.9
2017 09 11 9:00 266.6 0.0 0.00 63.9 17.7 56.12 1.1
2017 09 11 10:00 265.7 0.0 0.00 69.2 20.6 46.99 2.1
2017 09 11 11:00 265.3 0.0 0.00 72.6 22.5 39.67 4.8
2017 09 11 12:00 265.3 0.0 0.00 74.7 23.7 33.79 7.7
2017 09 11 13:00 265.3 0.0 0.00 75.3 24.1 33.7 7.6
2017 09 11 14:00 265.3 0.0 0.00 76.6 24.8 32.9 7.0
2017 09 11 15:00 265.3 0.0 0.00 79.4 26.4 28.69 7.5
2017 09 11 16:00 265.2 0.0 0.00 78.5 25.8 27.62 7.3
2017 09 11 17:00 265.1 0.0 0.00 77.9 25.5 26.9 6.9
2017 09 11 18:00 265.5 0.0 0.00 74.3 23.5 33.23 5.1
2017 09 11 19:00 266.5 0.0 0.00 69.8 21.0 42.15 2.5
2017 09 11 20:00 267.3 0.0 0.00 66.4 19.1 49.22 3.2
2017 09 11 21:00 267.4 0.0 0.00 65.4 18.5 50.06 3.9
2017 09 11 22:00 267.5 0.0 0.00 63.7 17.6 53.84 2.8
2017 09 11 23:00 267.9 0.0 0.00 62.6 17.0 56.59 3.4
2017 09 11 24:00 268.1 0.0 0.00 61.8 16.5 58.47 3.1
2017 09 12 1:00 268.4 0.0 0.00 60.1 15.6 63.22 3.4
2017 09 12 2:00 269.1 0.0 0.00 57.8 14.3 70.34 3.3
2017 09 12 3:00 269.5 0.0 0.00 56.8 13.8 73.95 3.8
2017 09 12 4:00 269.5 0.0 0.00 57.4 14.1 72.92 4.6
2017 09 12 5:00 269.7 0.0 0.00 56.9 13.8 74.75 4.1
2017 09 12 6:00 270.2 0.0 0.00 55.8 13.2 78.01 3.8
2017 09 12 7:00 270.0 0.0 0.00 56.8 13.8 75.63 5.1
2017 09 12 8:00 269.0 0.0 0.00 60.7 15.9 67.47 4.5
2017 09 12 9:00 268.2 0.0 0.00 64.3 18.0 59.07 6.1
2017 09 12 10:00 267.1 0.0 0.00 67.9 20.0 51.39 8.2
2017 09 12 11:00 266.5 0.0 0.00 71.0 21.7 44.76 9.4
2017 09 12 12:00 266.1 0.0 0.00 73.6 23.1 41.65 8.2
2017 09 12 13:00 265.7 0.0 0.00 75.5 24.1 35.58 8.9
2017 09 12 14:00 265.4 0.0 0.00 76.7 24.9 33.69 8.7
2017 09 12 15:00 265.5 0.0 0.00 76.2 24.5 34.12 8.2
2017 09 12 16:00 266.0 0.0 0.00 74.9 23.8 37.66 7.9
2017 09 12 17:00 266.0 0.0 0.00 73.6 23.1 38.82 7.3
2017 09 12 18:00 266.7 0.0 0.00 71.9 22.2 44.16 5.2
2017 09 12 19:00 266.8 0.0 0.00 70.8 21.6 46.74 3.2
2017 09 12 20:00 267.4 0.0 0.00 69.3 20.7 53.32 2.8
2017 09 12 21:00 267.5 0.0 0.00 68.1 20.1 55.63 2.6
2017 09 12 22:00 267.9 0.0 0.00 67.2 19.6 57.89 2.0
2017 09 12 23:00 280.3 0.0 0.00 66.3 19.1 61.1 2.0
2017 09 12 24:00 270.2 0.0 0.00 65.5 18.6 63.58 3.0
2017 09 13 1:00 269.0 0.0 0.00 64.8 18.2 65.68 1.6
2017 09 13 2:00 269.8 0.0 0.00 62.2 16.8 73.3 1.8
2017 09 13 3:00 270.1 0.0 0.00 61.8 16.6 74.04 1.9
2017 09 13 4:00 270.0 0.0 0.00 61.3 16.3 74.36 2.9
2017 09 13 5:00 270.2 0.0 0.00 60.2 15.7 77.29 1.7
2017 09 13 6:00 270.4 0.0 0.00 59.9 15.5 77.6 2.3
2017 09 13 7:00 270.1 0.0 0.00 61.1 16.1 74.71 3.8
2017 09 13 8:00 269.7 0.0 0.00 61.8 16.6 73.72 4.5
2017 09 13 9:00 269.7 0.0 0.00 62.5 16.9 74.09 3.2
2017 09 13 10:00 268.9 0.0 0.00 66.1 18.9 68.01 3.3
2017 09 13 11:00 267.6 0.0 0.00 71.3 21.9 59.23 2.9
2017 09 13 12:00 266.7 0.0 0.00 73.8 23.2 54.94 3.9
2017 09 13 13:00 266.7 0.0 0.00 76.1 24.5 51.31 4.9
2017 09 13 14:00 266.8 0.0 0.00 77.2 25.1 50.39 4.5
2017 09 13 15:00 266.9 0.0 0.00 76.8 24.9 50.99 4.3
2017 09 13 16:00 267.2 0.0 0.00 76.5 24.7 51.95 3.0
2017 09 13 17:00 267.4 0.0 0.00 75.8 24.4 54.37 2.8
2017 09 13 18:00 268.1 0.0 0.00 74.8 23.8 58.51 3.6
2017 09 13 19:00 269.8 0.0 0.00 70.5 21.4 69.51 0.6
2017 09 13 20:00 271.6 0.0 0.00 67.4 19.7 77.02 0.1
2017 09 13 21:00 272.9 0.0 0.00 64.6 18.1 84.9 0.0
2017 09 13 22:00 Wet 306.9 0.0 0.00 61.3 16.3 93.7 0.1
2017 09 13 23:00 Wet 357.2 0.0 0.00 61.0 16.1 93.4 0.5
2017 09 13 24:00 Wet 385.7 0.0 0.00 60.6 15.9 93.8 0.2
2017 09 14 1:00 Wet 370.2 0.0 0.00 59.6 15.3 93.9 0.6
2017 09 14 2:00 Wet 367.7 0.0 0.00 56.7 13.7 95.5 0.0
2017 09 14 3:00 Wet 370.6 0.0 0.00 54.7 12.6 97.4 0.0
2017 09 14 4:00 Wet 366.2 0.0 0.00 54.7 12.6 97.1 0.1
2017 09 14 5:00 Wet 368.4 0.0 0.00 53.2 11.8 97.8 0.0
2017 09 14 6:00 Wet 372.9 0.0 0.00 52.2 11.2 98.9 0.3
2017 09 14 7:00 Wet 341.5 0.0 0.00 52.6 11.5 99.2 0.0
2017 09 14 8:00 277.0 0.0 0.00 59.7 15.4 92.7 0.2
2017 09 14 9:00 267.8 0.0 0.00 67.2 19.6 71.71 0.9
2017 09 14 10:00 266.5 0.0 0.00 75.6 24.2 54.27 1.3
2017 09 14 11:00 265.6 0.0 0.00 80.1 26.7 45.14 2.7
2017 09 14 12:00 265.0 0.0 0.00 82.9 28.3 36.77 3.0
2017 09 14 13:00 264.6 0.0 0.00 84.7 29.3 31.15 3.5
2017 09 14 14:00 264.6 0.0 0.00 85.7 29.9 26.82 5.2
2017 09 14 15:00 264.6 0.0 0.00 87.2 30.7 24.41 4.1
2017 09 14 16:00 264.6 0.0 0.00 87.5 30.9 24.38 3.8
2017 09 14 17:00 264.6 0.0 0.00 86.8 30.5 22.91 3.4
2017 09 14 18:00 265.3 0.0 0.00 82.9 28.3 32.96 2.6
2017 09 14 19:00 266.5 0.0 0.00 76.8 24.9 43.48 0.4
2017 09 14 20:00 267.8 0.0 0.00 71.0 21.6 55.15 0.1
2017 09 14 21:00 269.3 0.0 0.00 67.3 19.6 63.09 0.0
2017 09 14 22:00 270.1 0.0 0.00 65.4 18.5 70.03 0.1
2017 09 14 23:00 272.5 0.0 0.00 62.7 17.1 79.35 0.0
2017 09 14 24:00 282.7 0.0 0.00 60.3 15.7 86.4 0.0
2017 09 15 1:00 Wet 304.7 0.0 0.00 59.6 15.4 87.2 0.1
2017 09 15 2:00 Wet 310.6 0.0 0.00 57.8 14.4 89.3 0.0
2017 09 15 3:00 Wet 339.1 0.0 0.00 56.8 13.8 92.1 0.2
2017 09 15 4:00 Wet 363.3 0.0 0.00 55.8 13.2 93.3 0.1
2017 09 15 5:00 Wet 383.3 0.0 0.00 55.3 12.9 94.7 0.1
2017 09 15 6:00 Wet 387.4 0.0 0.00 55.0 12.8 95.3 0.5
2017 09 15 7:00 Wet 327.2 0.0 0.00 59.9 15.5 88.7 0.5
2017 09 15 8:00 270.7 0.0 0.00 66.0 18.9 77.81 2.6
2017 09 15 9:00 267.6 0.0 0.00 75.0 23.9 60.26 3.3
2017 09 15 10:00 266.1 0.0 0.00 81.2 27.3 44.5 6.0
2017 09 15 11:00 265.3 0.0 0.00 85.1 29.5 38.53 7.7
2017 09 15 12:00 265.2 0.0 0.00 86.6 30.3 35.51 7.9
2017 09 15 13:00 264.8 0.0 0.00 87.7 30.9 32.52 8.3
2017 09 15 14:00 264.7 0.0 0.00 88.8 31.5 31.52 6.9
2017 09 15 15:00 264.7 0.0 0.00 89.4 31.9 29.19 6.8
2017 09 15 16:00 264.8 0.0 0.00 89.5 31.9 28.59 6.0
2017 09 15 17:00 265.0 0.0 0.00 88.4 31.4 29.76 5.9
2017 09 15 18:00 265.5 0.0 0.00 85.5 29.7 35.96 4.7
2017 09 15 19:00 266.4 0.0 0.00 81.1 27.3 43.3 3.2
2017 09 15 20:00 266.9 0.0 0.00 78.3 25.7 49.11 2.7
2017 09 15 21:00 267.7 0.0 0.00 75.1 23.9 56.2 0.4
2017 09 15 22:00 268.6 0.0 0.00 72.0 22.2 63.71 0.7
2017 09 15 23:00 269.2 0.0 0.00 70.8 21.5 67.69 1.0
2017 09 15 24:00 269.5 0.0 0.00 69.9 21.0 70.74 2.3
2017 09 16 1:00 270.2 0.0 0.00 68.6 20.3 74.48 1.2
2017 09 16 2:00 272.2 0.0 0.00 66.6 19.2 79.93 0.1
2017 09 16 3:00 273.9 0.0 0.00 64.5 18.1 84.8 0.1
2017 09 16 4:00 Wet 286.4 0.0 0.00 61.6 16.4 92.5 0.1
2017 09 16 5:00 Wet 336.8 0.0 0.00 60.0 15.6 95.6 0.0
2017 09 16 6:00 Wet 369.4 0.0 0.00 59.5 15.3 95 0.0
2017 09 16 7:00 Wet 347.0 0.0 0.00 61.4 16.4 91.2 0.4
2017 09 16 8:00 273.9 0.0 0.00 67.9 20.0 80.8 3.1
2017 09 16 9:00 268.1 0.0 0.00 75.3 24.1 65.38 4.1
2017 09 16 10:00 267.0 0.0 0.00 81.0 27.2 54.67 6.5
2017 09 16 11:00 266.5 0.0 0.00 82.6 28.1 46.5 7.9
2017 09 16 12:00 265.8 0.0 0.00 85.2 29.6 42.12 6.6
2017 09 16 13:00 265.5 0.0 0.00 87.0 30.6 37.53 8.3
2017 09 16 14:00 265.3 0.0 0.00 88.0 31.1 34.7 8.6
2017 09 16 15:00 265.3 0.0 0.00 88.8 31.6 33.6 8.1
2017 09 16 16:00 265.3 0.0 0.00 88.9 31.6 33.77 7.3
2017 09 16 17:00 265.5 0.0 0.00 88.0 31.1 34.93 6.3
2017 09 16 18:00 266.0 0.0 0.00 85.9 30.0 37.81 4.6
2017 09 16 19:00 266.8 0.0 0.00 81.2 27.4 44.46 0.3
2017 09 16 20:00 267.6 0.0 0.00 76.7 24.8 54.37 0.9
2017 09 16 21:00 268.1 0.0 0.00 74.7 23.7 57.86 0.1
2017 09 16 22:00 269.0 0.0 0.00 71.5 22.0 66.23 0.6
2017 09 16 23:00 270.1 0.0 0.00 69.1 20.6 74 0.9
2017 09 16 24:00 270.5 0.0 0.00 68.5 20.3 75.44 1.4
2017 09 17 1:00 270.3 0.0 0.00 70.0 21.1 72.55 2.7
2017 09 17 2:00 270.2 0.0 0.00 71.6 22.0 70.26 1.9
2017 09 17 3:00 270.2 0.0 0.00 69.8 21.0 75.55 1.7
2017 09 17 4:00 270.5 0.0 0.00 69.7 21.0 77.24 0.7
2017 09 17 5:00 271.7 0.0 0.00 67.8 19.9 82.9 1.3
2017 09 17 6:00 271.5 0.0 0.00 67.9 20.0 82.3 1.8
2017 09 17 7:00 275.0 0.0 0.00 68.9 20.5 80.1 2.2
2017 09 17 8:00 269.5 0.0 0.00 72.2 22.3 70.38 4.0
2017 09 17 9:00 269.0 0.0 0.00 74.2 23.4 66.01 2.8
2017 09 17 10:00 281.7 0.0 0.00 74.4 23.6 66.78 3.3
2017 09 17 11:00 Wet 319.0 0.0 0.00 71.1 21.7 82.2 6.1
2017 09 17 12:00 Wet 505.9 0.2 6.10 68.7 20.4 92.4 2.3
2017 09 17 13:00 Wet 405.3 0.0 0.76 70.0 21.1 91.6 1.3
2017 09 17 14:00 Wet 284.5 0.0 0.00 72.6 22.6 84.4 5.4
2017 09 17 15:00 271.7 0.0 0.00 72.3 22.4 83 6.8
2017 09 17 16:00 270.8 0.0 0.00 73.1 22.8 79.94 5.4
2017 09 17 17:00 270.8 0.0 0.00 73.7 23.1 77.53 4.2
2017 09 17 18:00 270.7 0.0 0.00 75.2 24.0 72.75 4.8
2017 09 17 19:00 272.0 0.0 0.00 71.8 22.1 79.86 0.4
2017 09 17 20:00 272.6 0.0 0.00 70.2 21.2 83.6 1.1
2017 09 17 21:00 273.9 0.0 0.00 68.6 20.3 85.5 0.6
2017 09 17 22:00 Wet 289.1 0.0 0.00 66.4 19.1 90.9 0.4
2017 09 17 23:00 Wet 331.5 0.0 0.00 64.9 18.3 94.6 0.4
2017 09 17 24:00 Wet 377.4 0.0 0.00 64.1 17.8 96.5 0.1
2017 09 18 1:00 Wet 390.9 0.0 0.00 64.0 17.8 96.9 0.1
2017 09 18 2:00 Wet 412.4 0.0 0.00 63.6 17.6 95.9 1.3
2017 09 18 3:00 Wet 415.6 0.0 0.00 62.9 17.2 96.1 1.4
2017 09 18 4:00 Wet 388.8 0.0 0.00 61.3 16.3 97.5 0.4
2017 09 18 5:00 Wet 371.7 0.0 0.00 60.9 16.0 97.7 0.4
2017 09 18 6:00 Wet 360.4 0.0 0.00 60.6 15.9 97.8 0.0
2017 09 18 7:00 Wet 329.9 0.0 0.00 61.8 16.6 97.1 0.3
2017 09 18 8:00 275.1 0.0 0.00 65.4 18.5 87.7 1.0
2017 09 18 9:00 270.3 0.0 0.00 68.9 20.5 80.6 2.1
2017 09 18 10:00 269.2 0.0 0.00 72.8 22.7 72.14 3.4
2017 09 18 11:00 268.2 0.0 0.00 77.3 25.1 64.73 3.2
2017 09 18 12:00 268.1 0.0 0.00 80.2 26.8 59.79 2.9
2017 09 18 13:00 267.3 0.0 0.00 83.0 28.3 53.32 3.5
2017 09 18 14:00 267.7 0.0 0.00 81.8 27.6 52.66 5.4
2017 09 18 15:00 269.5 0.0 0.00 74.7 23.7 67.21 5.3
2017 09 18 16:00 269.8 0.0 0.00 73.8 23.2 73.64 1.5
2017 09 18 17:00 Wet 398.6 0.0 1.02 70.2 21.2 84.3 6.2
2017 09 18 18:00 Wet 496.4 0.1 2.54 67.5 19.7 93.1 4.8
2017 09 18 19:00 Wet 495.5 0.1 2.79 67.1 19.5 96.1 2.6
2017 09 18 20:00 Wet 343.5 0.0 0.00 66.5 19.2 97.4 1.9
2017 09 18 21:00 Wet 329.4 0.0 0.00 66.6 19.2 97.4 2.3
2017 09 18 22:00 Wet 340.3 0.0 0.00 66.5 19.1 97.2 1.5
2017 09 18 23:00 Wet 345.6 0.0 0.00 65.5 18.6 98.1 1.6
2017 09 18 24:00 Wet 340.8 0.0 0.00 65.4 18.6 98.7 1.3
2017 09 19 1:00 Wet 337.0 0.0 0.00 64.9 18.3 98.9 2.3
2017 09 19 2:00 Wet 353.3 0.0 0.00 64.6 18.1 99.1 0.4
2017 09 19 3:00 Wet 345.4 0.0 0.25 64.2 17.9 99.3 0.1
2017 09 19 4:00 Wet 349.7 0.0 0.00 63.8 17.7 99.4 1.2
2017 09 19 5:00 Wet 348.8 0.0 0.00 63.0 17.2 99.5 2.3
2017 09 19 6:00 Wet 346.1 0.0 0.00 62.5 17.0 99.6 0.6
2017 09 19 7:00 Wet 342.2 0.0 0.00 62.6 17.0 99.7 1.2
2017 09 19 8:00 Wet 318.0 0.0 0.00 63.4 17.4 99.7 2.8
2017 09 19 9:00 283.7 0.0 0.00 65.3 18.5 99.7 3.0
2017 09 19 10:00 272.7 0.0 0.00 67.3 19.6 99.7 3.4
2017 09 19 11:00 272.0 0.0 0.00 69.7 20.9 97.4 3.9
2017 09 19 12:00 270.7 0.0 0.00 74.0 23.3 83.4 2.7
2017 09 19 13:00 269.3 0.0 0.00 79.0 26.1 69.76 2.6
2017 09 19 14:00 268.6 0.0 0.00 82.7 28.2 56.86 3.1
2017 09 19 15:00 268.1 0.0 0.00 85.4 29.7 48.38 3.2
2017 09 19 16:00 268.0 0.0 0.00 86.1 30.0 43.89 4.2
2017 09 19 17:00 268.0 0.0 0.00 85.8 29.9 46.75 3.4
2017 09 19 18:00 268.5 0.0 0.00 83.1 28.4 53.52 3.0
2017 09 19 19:00 269.5 0.0 0.00 78.7 25.9 62.17 0.8
2017 09 19 20:00 270.2 0.0 0.00 75.6 24.2 69.63 1.2
2017 09 19 21:00 271.3 0.0 0.00 73.7 23.1 75.07 0.7
2017 09 19 22:00 271.8 0.0 0.00 72.5 22.5 78.17 0.4
2017 09 19 23:00 274.1 0.0 0.00 70.5 21.4 83.7 0.3
2017 09 19 24:00 273.8 0.0 0.00 70.7 21.5 82.9 0.3
2017 09 20 1:00 274.2 0.0 0.00 69.8 21.0 85.3 0.9
2017 09 20 2:00 275.0 0.0 0.00 68.7 20.4 87.9 1.0
2017 09 20 3:00 275.1 0.0 0.00 68.2 20.1 88.7 1.3
2017 09 20 4:00 277.5 0.0 0.00 67.6 19.8 90.1 1.3
2017 09 20 5:00 Wet 284.2 0.0 0.00 67.2 19.6 91.3 1.2
2017 09 20 6:00 279.4 0.0 0.00 67.5 19.7 91.2 2.0
2017 09 20 7:00 275.2 0.0 0.00 68.7 20.4 89.9 1.5
2017 09 20 8:00 271.1 0.0 0.00 73.7 23.1 81.4 4.8
2017 09 20 9:00 269.9 0.0 0.00 77.7 25.4 74.22 6.5
2017 09 20 10:00 268.8 0.0 0.00 81.8 27.6 66.38 7.2
2017 09 20 11:00 268.3 0.0 0.00 84.7 29.3 61.61 7.5
2017 09 20 12:00 268.0 0.0 0.00 87.7 30.9 55.93 7.5
2017 09 20 13:00 267.5 0.0 0.00 90.2 32.3 50.07 8.6
2017 09 20 14:00 267.2 0.0 0.00 92.2 33.5 43.23 8.8
2017 09 20 15:00 266.7 0.0 0.00 93.6 34.2 37.03 9.0
2017 09 20 16:00 266.7 0.0 0.00 93.5 34.2 37.37 8.9
2017 09 20 17:00 266.7 0.0 0.00 92.7 33.7 39.66 7.1
2017 09 20 18:00 267.0 0.0 0.00 90.2 32.3 43.64 4.1
2017 09 20 19:00 268.0 0.0 0.00 85.6 29.8 51.29 1.7
2017 09 20 20:00 268.7 0.0 0.00 81.9 27.7 59.18 2.8
2017 09 20 21:00 269.3 0.0 0.00 80.1 26.7 63.2 3.3
2017 09 20 22:00 269.4 0.0 0.00 78.7 26.0 65.77 2.9
2017 09 20 23:00 270.1 0.0 0.00 77.6 25.3 69.78 2.7
2017 09 20 24:00 270.3 0.0 0.00 76.9 24.9 73.83 3.5
2017 09 21 1:00 271.2 0.0 0.00 76.0 24.4 77.28 2.2
2017 09 21 2:00 272.1 0.0 0.00 74.5 23.6 81.5 1.8
2017 09 21 3:00 273.0 0.0 0.00 73.3 22.9 84.6 0.7
2017 09 21 4:00 274.2 0.0 0.00 72.2 22.3 87.2 2.1
2017 09 21 5:00 278.2 0.0 0.00 71.0 21.7 90.3 1.1
2017 09 21 6:00 280.2 0.0 0.00 70.8 21.6 90.4 1.5
2017 09 21 7:00 274.0 0.0 0.00 71.6 22.0 88.3 0.9
2017 09 21 8:00 272.1 0.0 0.00 73.0 22.8 87.2 0.1
2017 09 21 9:00 270.6 0.0 0.00 77.3 25.1 78.04 1.0
2017 09 21 10:00 269.4 0.0 0.00 80.7 27.0 70.14 2.0
2017 09 21 11:00 268.7 0.0 0.00 83.3 28.5 64.66 2.2
2017 09 21 12:00 268.7 0.0 0.00 83.7 28.7 64.39 3.9
2017 09 21 13:00 268.7 0.0 0.00 84.5 29.2 63.85 5.5
2017 09 21 14:00 268.7 0.0 0.00 85.2 29.6 61.63 6.8
2017 09 21 15:00 268.7 0.0 0.00 85.8 29.9 60.4 6.5
2017 09 21 16:00 268.7 0.0 0.00 86.1 30.1 59.32 8.5
2017 09 21 17:00 268.4 0.0 0.00 88.1 31.2 53.57 7.8
2017 09 21 18:00 268.3 0.0 0.00 86.9 30.5 53.12 5.9
2017 09 21 19:00 269.1 0.0 0.00 83.2 28.5 60.07 3.2
2017 09 21 20:00 269.8 0.0 0.00 80.3 26.9 66.14 2.6
2017 09 21 21:00 270.6 0.0 0.00 77.7 25.4 71.8 2.4
2017 09 21 22:00 270.8 0.0 0.00 77.2 25.1 71.37 2.0
2017 09 21 23:00 270.8 0.0 0.00 77.2 25.1 70.31 3.0
2017 09 21 24:00 270.8 0.0 0.00 75.9 24.4 72.44 2.2
2017 09 22 1:00 271.2 0.0 0.00 74.3 23.5 75.59 1.5
2017 09 22 2:00 272.0 0.0 0.00 72.4 22.5 81 1.5
2017 09 22 3:00 273.5 0.0 0.00 71.3 21.8 83.9 0.7
2017 09 22 4:00 282.1 0.0 0.00 68.8 20.5 89.9 0.2
2017 09 22 5:00 Wet 320.3 0.0 0.00 67.0 19.5 94.6 0.7
2017 09 22 6:00 Wet 353.5 0.0 0.00 67.8 19.9 94.1 0.8
2017 09 22 7:00 Wet 329.8 0.0 0.00 69.3 20.7 91.2 1.2
2017 09 22 8:00 271.0 0.0 0.00 73.1 22.9 83.2 3.5
2017 09 22 9:00 269.1 0.0 0.00 79.4 26.3 69.2 4.3
2017 09 22 10:00 267.8 0.0 0.00 84.8 29.4 57.67 5.5
2017 09 22 11:00 267.1 0.0 0.00 87.4 30.8 50.01 6.4
2017 09 22 12:00 266.5 0.0 0.00 89.2 31.8 44.23 6.8
2017 09 22 13:00 266.2 0.0 0.00 90.4 32.4 40.65 6.6
2017 09 22 14:00 265.9 0.0 0.00 92.2 33.5 36.58 5.8
2017 09 22 15:00 265.5 0.0 0.00 93.3 34.1 32.57 5.6
2017 09 22 16:00 265.6 0.0 0.00 92.8 33.8 31.08 4.9
2017 09 22 17:00 265.7 0.0 0.00 91.9 33.3 32.16 4.4
2017 09 22 18:00 266.0 0.0 0.00 88.6 31.4 35.69 3.0
2017 09 22 19:00 266.7 0.0 0.00 84.0 28.9 40.52 0.4
2017 09 22 20:00 267.6 0.0 0.00 79.0 26.1 49.63 0.0
2017 09 22 21:00 268.7 0.0 0.00 75.5 24.1 58.76 0.0
2017 09 22 22:00 270.2 0.0 0.00 71.4 21.9 71.53 0.1
2017 09 22 23:00 271.6 0.0 0.00 69.6 20.9 78.05 0.0
2017 09 22 24:00 273.4 0.0 0.00 68.0 20.0 82.9 0.4
2017 09 23 1:00 273.5 0.0 0.00 66.9 19.4 86.2 0.3
2017 09 23 2:00 275.8 0.0 0.00 65.6 18.6 90.2 0.0
2017 09 23 3:00 Wet 299.5 0.0 0.00 64.8 18.3 91.9 0.1
2017 09 23 4:00 Wet 327.3 0.0 0.00 64.0 17.8 93.3 0.1
2017 09 23 5:00 Wet 358.2 0.0 0.00 63.8 17.6 93.7 0.0
2017 09 23 6:00 Wet 383.6 0.0 0.00 63.0 17.2 95.3 0.0
2017 09 23 7:00 Wet 361.9 0.0 0.00 64.8 18.2 91.8 0.0
2017 09 23 8:00 Wet 286.2 0.0 0.00 71.9 22.2 76.58 2.0
2017 09 23 9:00 267.7 0.0 0.00 78.8 26.0 61.88 1.2
2017 09 23 10:00 266.5 0.0 0.00 84.8 29.3 52.3 1.8
2017 09 23 11:00 266.0 0.0 0.00 87.3 30.7 45.84 3.3
2017 09 23 12:00 265.6 0.0 0.00 88.8 31.6 40.84 3.8
2017 09 23 13:00 265.4 0.0 0.00 90.0 32.2 37.81 4.5
2017 09 23 14:00 265.3 0.0 0.00 90.6 32.5 34.76 5.7
2017 09 23 15:00 265.3 0.0 0.00 90.9 32.7 33.48 5.6
2017 09 23 16:00 265.9 0.0 0.00 89.9 32.2 36.59 5.9
2017 09 23 17:00 266.0 0.0 0.00 88.9 31.6 36.76 5.5
2017 09 23 18:00 266.3 0.0 0.00 85.7 29.9 41.77 3.7
2017 09 23 19:00 267.2 0.0 0.00 81.7 27.6 47.65 1.1
2017 09 23 20:00 268.3 0.0 0.00 76.7 24.8 59.16 0.1
2017 09 23 21:00 270.5 0.0 0.00 72.3 22.4 72.33 0.0
2017 09 23 22:00 271.6 0.0 0.00 71.1 21.7 75.34 0.0
2017 09 23 23:00 272.1 0.0 0.00 69.9 21.1 76.54 0.0
2017 09 23 24:00 272.8 0.0 0.00 68.5 20.3 80.4 0.3
2017 09 24 1:00 271.6 0.0 0.00 66.9 19.4 85.9 0.6
2017 09 24 2:00 Wet 287.5 0.0 0.00 64.6 18.1 92.4 0.0
2017 09 24 3:00 Wet 323.4 0.0 0.00 64.4 18.0 91.9 0.2
2017 09 24 4:00 Wet 347.0 0.0 0.00 63.1 17.3 94.1 0.0
2017 09 24 5:00 Wet 372.4 0.0 0.00 62.7 17.1 95 0.0
2017 09 24 6:00 Wet 383.5 0.0 0.00 62.2 16.8 94.7 0.0
2017 09 24 7:00 Wet 370.2 0.0 0.00 64.0 17.8 91.1 0.2
2017 09 24 8:00 Wet 300.9 0.0 0.00 70.2 21.2 77.38 1.9
2017 09 24 9:00 268.5 0.0 0.00 76.5 24.7 65.52 2.9
2017 09 24 10:00 267.0 0.0 0.00 82.5 28.0 55.52 3.2
2017 09 24 11:00 266.1 0.0 0.00 86.5 30.3 47.44 3.4
2017 09 24 12:00 266.0 0.0 0.00 87.4 30.8 43.23 4.8
2017 09 24 13:00 265.6 0.0 0.00 89.2 31.8 40.38 5.6
2017 09 24 14:00 265.6 0.0 0.00 89.7 32.1 37.81 4.8
2017 09 24 15:00 265.8 0.0 0.00 90.1 32.3 36.23 4.4
2017 09 24 16:00 265.7 0.0 0.00 90.6 32.6 34.75 4.0
2017 09 24 17:00 265.9 0.0 0.00 89.7 32.1 35.43 4.0
2017 09 24 18:00 266.2 0.0 0.00 86.5 30.3 40.87 3.2
2017 09 24 19:00 267.4 0.0 0.00 81.7 27.6 50.48 1.1
2017 09 24 20:00 268.2 0.0 0.00 78.5 25.9 57.08 0.0
2017 09 24 21:00 269.8 0.0 0.00 74.0 23.4 68.81 0.1
2017 09 24 22:00 269.5 0.0 0.00 75.6 24.2 63.1 0.1
2017 09 24 23:00 271.0 0.0 0.00 71.4 21.9 74.63 0.6
2017 09 24 24:00 271.9 0.0 0.00 69.3 20.7 80.4 1.5
2017 09 25 1:00 270.4 0.0 0.00 67.6 19.8 84.9 0.8
2017 09 25 2:00 270.7 0.0 0.00 66.6 19.2 87.3 0.9
2017 09 25 3:00 Wet 296.2 0.0 0.00 64.0 17.8 94.1 0.0
2017 09 25 4:00 Wet 349.8 0.0 0.00 63.5 17.5 95.2 0.5
2017 09 25 5:00 Wet 381.5 0.0 0.00 63.6 17.6 94.8 0.6
2017 09 25 6:00 Wet 380.3 0.0 0.00 64.6 18.1 91.9 1.3
2017 09 25 7:00 Wet 353.1 0.0 0.00 65.6 18.7 89.9 1.3
2017 09 25 8:00 Wet 290.0 0.0 0.00 69.9 21.0 79.58 2.6
2017 09 25 9:00 268.0 0.0 0.00 76.3 24.6 64.64 2.8
2017 09 25 10:00 266.8 0.0 0.00 81.6 27.6 54.54 4.9
2017 09 25 11:00 266.2 0.0 0.00 84.6 29.2 49.27 4.1
2017 09 25 12:00 265.6 0.0 0.00 87.8 31.0 43.16 3.5
2017 09 25 13:00 265.4 0.0 0.00 88.7 31.5 39.56 4.6
2017 09 25 14:00 265.3 0.0 0.00 90.1 32.3 36.12 5.9
2017 09 25 15:00 265.3 0.0 0.00 90.3 32.4 35.11 5.9
2017 09 25 16:00 265.7 0.0 0.00 88.6 31.4 37.58 6.8
2017 09 25 17:00 266.0 0.0 0.00 87.1 30.6 40.13 5.3
2017 09 25 18:00 266.5 0.0 0.00 85.0 29.5 44.7 1.2
2017 09 25 19:00 267.6 0.0 0.00 81.0 27.2 52.93 0.3
2017 09 25 20:00 269.2 0.0 0.00 75.7 24.3 67.48 0.6
2017 09 25 21:00 270.1 0.0 0.00 73.9 23.3 69.82 0.3
2017 09 25 22:00 271.1 0.0 0.00 72.0 22.2 74.76 0.0
2017 09 25 23:00 269.4 0.0 0.00 68.5 20.3 85.2 0.1
2017 09 25 24:00 273.4 0.0 0.00 66.9 19.4 89.4 0.4
2017 09 26 1:00 276.1 0.0 0.00 66.5 19.2 87.8 1.0
2017 09 26 2:00 Wet 287.9 0.0 0.00 65.2 18.4 91 0.3
2017 09 26 3:00 Wet 299.0 0.0 0.00 64.8 18.2 90.8 0.0
2017 09 26 4:00 Wet 336.5 0.0 0.00 64.1 17.9 91.4 0.3
2017 09 26 5:00 Wet 359.9 0.0 0.00 63.5 17.5 91.9 0.3
2017 09 26 6:00 Wet 375.6 0.0 0.00 63.1 17.3 92.1 0.1
2017 09 26 7:00 Wet 343.5 0.0 0.00 64.8 18.2 88.2 1.6
2017 09 26 8:00 270.4 0.0 0.00 72.1 22.3 71.34 1.5
2017 09 26 9:00 267.8 0.0 0.00 78.9 26.0 56.15 5.9
2017 09 26 10:00 266.6 0.0 0.00 83.2 28.5 46.99 7.6
2017 09 26 11:00 266.0 0.0 0.00 86.0 30.0 43.11 8.0
2017 09 26 12:00 266.0 0.0 0.00 86.0 30.0 43.99 7.3
2017 09 26 13:00 265.7 0.0 0.00 87.6 30.9 40.77 7.3
2017 09 26 14:00 265.6 0.0 0.00 87.8 31.0 39.56 6.5
2017 09 26 15:00 265.9 0.0 0.00 87.9 31.1 40.13 7.5
2017 09 26 16:00 266.0 0.0 0.00 87.2 30.7 42.36 7.8
2017 09 26 17:00 266.3 0.0 0.00 85.7 29.8 44.88 8.9
2017 09 26 18:00 267.6 0.0 0.00 80.7 27.0 56.28 9.4
2017 09 26 19:00 268.1 0.0 0.00 78.0 25.5 60.83 7.9
2017 09 26 20:00 268.7 0.0 0.00 75.8 24.3 66.25 4.3
2017 09 26 21:00 269.4 0.0 0.00 73.8 23.2 71.07 3.1
2017 09 26 22:00 270.0 0.0 0.00 71.8 22.1 74.47 7.1
2017 09 26 23:00 270.2 0.0 0.00 69.6 20.9 76.42 6.3
2017 09 26 24:00 270.8 0.0 0.00 67.9 19.9 79.65 3.2
2017 09 27 1:00 270.9 0.0 0.00 66.9 19.4 80.7 2.5
2017 09 27 2:00 271.6 0.0 0.00 65.7 18.7 82.9 2.0
2017 09 27 3:00 271.5 0.0 0.00 65.2 18.4 82.3 3.5
2017 09 27 4:00 271.5 0.0 0.00 64.5 18.1 81.9 3.9
2017 09 27 5:00 271.5 0.0 0.00 63.8 17.6 80.4 4.4
2017 09 27 6:00 271.5 0.0 0.00 62.6 17.0 79.59 5.2
2017 09 27 7:00 270.8 0.0 0.00 62.7 17.1 75.72 5.7
2017 09 27 8:00 269.7 0.0 0.00 64.3 18.0 68.98 5.0
2017 09 27 9:00 268.7 0.0 0.00 66.9 19.4 59.35 6.4
2017 09 27 10:00 268.8 0.0 0.00 66.0 18.9 59.62 7.0
2017 09 27 11:00 268.5 0.0 0.00 66.5 19.1 57.09 6.4
2017 09 27 12:00 268.0 0.0 0.00 68.3 20.1 53.85 6.6
2017 09 27 13:00 267.5 0.0 0.00 69.1 20.6 51.48 7.1
2017 09 27 14:00 266.9 0.0 0.00 70.7 21.5 43.72 7.8
2017 09 27 15:00 266.7 0.0 0.00 70.4 21.3 39.53 7.7
2017 09 27 16:00 266.7 0.0 0.00 69.5 20.8 39.92 7.3
2017 09 27 17:00 266.8 0.0 0.00 68.2 20.1 40.18 6.5
2017 09 27 18:00 267.1 0.0 0.00 66.7 19.3 43.11 4.6
2017 09 27 19:00 267.4 0.0 0.00 65.2 18.4 47.42 3.6
2017 09 27 20:00 267.4 0.0 0.00 64.0 17.8 49.99 3.1
2017 09 27 21:00 267.5 0.0 0.00 63.2 17.3 50.93 3.7
2017 09 27 22:00 268.1 0.0 0.00 61.1 16.2 53.79 2.7
2017 09 27 23:00 268.2 0.0 0.00 59.6 15.4 54.3 1.8
2017 09 27 24:00 268.7 0.0 0.00 57.8 14.4 57.76 2.1
2017 09 28 1:00 268.8 0.0 0.00 56.3 13.5 61.79 2.2
2017 09 28 2:00 269.5 0.0 0.00 55.1 12.9 65.84 1.2
2017 09 28 3:00 269.8 0.0 0.00 54.4 12.4 68.48 1.1
2017 09 28 4:00 270.6 0.0 0.00 53.4 11.9 71.05 0.9
2017 09 28 5:00 270.9 0.0 0.00 52.1 11.2 74.95 1.5
2017 09 28 6:00 270.9 0.0 0.00 51.5 10.9 77.9 2.9
2017 09 28 7:00 270.9 0.0 0.00 51.1 10.6 80.2 2.8
2017 09 28 8:00 268.9 0.0 0.00 55.9 13.3 68.4 4.2
2017 09 28 9:00 267.1 0.0 0.00 62.5 16.9 53.78 4.4
2017 09 28 10:00 266.3 0.0 0.00 66.0 18.9 42.03 7.0
2017 09 28 11:00 265.9 0.0 0.00 67.8 19.9 39.53 6.7
2017 09 28 12:00 265.4 0.0 0.00 70.3 21.3 37.55 6.9
2017 09 28 13:00 265.4 0.0 0.00 73.2 22.9 33.12 7.4
2017 09 28 14:00 265.3 0.0 0.00 74.8 23.8 30.53 6.4
2017 09 28 15:00 265.3 0.0 0.00 76.1 24.5 29.16 5.7
2017 09 28 16:00 265.4 0.0 0.00 76.4 24.7 28.88 5.3
2017 09 28 17:00 265.7 0.0 0.00 76.1 24.5 29.64 5.1
2017 09 28 18:00 266.1 0.0 0.00 72.8 22.7 33.97 3.7
2017 09 28 19:00 266.9 0.0 0.00 66.6 19.2 43.56 0.7
2017 09 28 20:00 268.6 0.0 0.00 60.7 15.9 57.75 1.0
2017 09 28 21:00 269.6 0.0 0.00 57.6 14.2 66.59 1.7
2017 09 28 22:00 270.0 0.0 0.00 54.3 12.4 76.32 0.2
2017 09 28 23:00 268.2 0.0 0.00 52.1 11.2 82.6 0.5
2017 09 28 24:00 280.3 0.0 0.00 50.9 10.5 86.5 0.6
2017 09 29 1:00 Wet 317.9 0.0 0.00 49.7 9.8 88.3 0.3
2017 09 29 2:00 Wet 350.9 0.0 0.00 47.9 8.8 93.4 0.2
2017 09 29 3:00 Wet 377.6 0.0 0.00 47.9 8.8 92.7 1.0
2017 09 29 4:00 Wet 389.3 0.0 0.00 46.9 8.3 92.7 0.6
2017 09 29 5:00 Wet 400.9 0.0 0.00 46.3 7.9 94.5 1.2
2017 09 29 6:00 Wet 408.3 0.0 0.00 45.3 7.4 95.3 0.3
2017 09 29 7:00 Wet 339.1 0.0 0.00 47.9 8.9 90.9 0.8
2017 09 29 8:00 272.1 0.0 0.00 56.0 13.3 74.38 0.9
2017 09 29 9:00 266.6 0.0 0.00 64.6 18.1 53.83 2.9
2017 09 29 10:00 265.4 0.0 0.00 72.4 22.4 40.24 3.8
2017 09 29 11:00 264.8 0.0 0.00 76.0 24.5 34.75 4.8
2017 09 29 12:00 264.6 0.0 0.00 78.2 25.7 31.39 4.5
2017 09 29 13:00 264.6 0.0 0.00 80.7 27.1 26.12 4.4
2017 09 29 14:00 264.3 0.0 0.00 81.6 27.5 24.79 3.3
2017 09 29 15:00 264.6 0.0 0.00 82.7 28.1 24.08 5.6
2017 09 29 16:00 264.6 0.0 0.00 82.2 27.9 23.84 5.6
2017 09 29 17:00 264.6 0.0 0.00 82.5 28.0 22.42 5.1
2017 09 29 18:00 264.9 0.0 0.00 78.3 25.7 29.69 4.0
2017 09 29 19:00 265.7 0.0 0.00 72.4 22.5 37.94 3.0
2017 09 29 20:00 266.1 0.0 0.00 69.6 20.9 42.89 3.5
2017 09 29 21:00 266.7 0.0 0.00 67.9 19.9 43.58 3.1
2017 09 29 22:00 266.7 0.0 0.00 66.0 18.9 41.94 2.8
2017 09 29 23:00 266.1 0.0 0.00 64.3 18.0 38.07 4.6
2017 09 29 24:00 266.4 0.0 0.00 61.9 16.6 40.04 4.3
2017 09 30 1:00 266.8 0.0 0.00 59.5 15.3 46.26 4.1
2017 09 30 2:00 267.3 0.0 0.00 57.3 14.0 52.6 3.7
2017 09 30 3:00 267.8 0.0 0.00 55.5 13.1 57.37 2.6
2017 09 30 4:00 268.6 0.0 0.00 53.3 11.8 62.93 1.6
2017 09 30 5:00 271.1 0.0 0.00 49.5 9.7 73.81 0.1
2017 09 30 6:00 273.6 0.0 0.00 47.5 8.6 79.42 0.4
2017 09 30 7:00 271.3 0.0 0.00 47.6 8.7 82.2 0.5
2017 09 30 8:00 267.6 0.0 0.00 55.0 12.8 66.97 2.5
2017 09 30 9:00 267.1 0.0 0.00 59.0 15.0 58.52 7.1
2017 09 30 10:00 266.2 0.0 0.00 62.4 16.9 50.13 6.4
2017 09 30 11:00 265.3 0.0 0.00 65.7 18.7 39.04 6.8
2017 09 30 12:00 264.7 0.0 0.00 68.5 20.3 33.36 6.2
2017 09 30 13:00 264.7 0.0 0.00 70.3 21.3 30.83 6.3
2017 09 30 14:00 264.7 0.0 0.00 71.6 22.0 29.47 6.4
2017 09 30 15:00 264.7 0.0 0.00 72.5 22.5 28.38 5.5
2017 09 30 16:00 264.8 0.0 0.00 72.8 22.7 27.39 6.5
2017 09 30 17:00 264.7 0.0 0.00 72.3 22.4 25.92 5.2
2017 09 30 18:00 265.2 0.0 0.00 69.5 20.8 29.43 3.5
2017 09 30 19:00 266.2 0.0 0.00 64.5 18.1 37.67 0.2
2017 09 30 20:00 267.7 0.0 0.00 58.2 14.5 50.5 0.0
2017 09 30 21:00 268.7 0.0 0.00 54.5 12.5 59.99 0.0
2017 09 30 22:00 269.5 0.0 0.00 52.4 11.4 66.08 0.1
2017 09 30 23:00 271.3 0.0 0.00 49.2 9.6 77.73 0.0
2017 09 30 24:00 272.2 0.0 0.00 48.1 8.9 81.5 0.4
2017 10 01 1:00 281.0 0.0 0.00 47.4 8.5 84 0.1
2017 10 01 2:00 Wet 290.0 0.0 0.00 46.8 8.2 86 0.1
2017 10 01 3:00 Wet 299.0 0.0 0.00 46.4 8.0 87.9 0.1
2017 10 01 4:00 Wet 309.1 0.0 0.00 46.4 8.0 88.9 0.0
2017 10 01 5:00 Wet 288.9 0.0 0.00 46.8 8.2 88.1 0.2
2017 10 01 6:00 273.2 0.0 0.00 49.1 9.5 83.6 0.5
2017 10 01 7:00 271.4 0.0 0.00 51.2 10.7 79.61 1.0
2017 10 01 8:00 269.1 0.0 0.00 55.5 13.1 66.92 3.5
2017 10 01 9:00 267.7 0.0 0.00 60.0 15.5 54.98 5.3
2017 10 01 10:00 266.1 0.0 0.00 64.7 18.2 46.17 5.5
2017 10 01 11:00 265.4 0.0 0.00 68.2 20.1 41.09 5.1
2017 10 01 12:00 264.9 0.0 0.00 71.3 21.9 34.61 5.4
2017 10 01 13:00 264.6 0.0 0.00 73.9 23.3 29.69 5.8
2017 10 01 14:00 264.9 0.0 0.00 75.0 23.9 32.2 5.9
2017 10 01 15:00 265.2 0.0 0.00 76.5 24.7 33.12 7.0
2017 10 01 16:00 265.3 0.0 0.00 75.3 24.1 35.99 6.4
2017 10 01 17:00 265.9 0.0 0.00 74.4 23.6 38.14 6.6
2017 10 01 18:00 266.4 0.0 0.00 71.6 22.0 43.43 3.4
2017 10 01 19:00 267.2 0.0 0.00 68.6 20.3 49.91 2.4
2017 10 01 20:00 267.7 0.0 0.00 68.6 20.4 57.14 4.7
2017 10 01 21:00 268.1 0.0 0.00 69.3 20.8 60.61 4.6
2017 10 01 22:00 268.4 0.0 0.00 68.4 20.2 63.47 4.4
2017 10 01 23:00 268.6 0.0 0.00 68.2 20.1 64.35 4.2
2017 10 01 24:00 268.8 0.0 0.00 66.8 19.3 68.74 3.1
2017 10 02 1:00 269.3 0.0 0.00 66.8 19.3 70.75 3.6
2017 10 02 2:00 269.5 0.0 0.00 67.9 19.9 68.78 4.4
2017 10 02 3:00 269.5 0.0 0.00 67.2 19.5 68.78 3.9
2017 10 02 4:00 269.3 0.0 0.00 67.3 19.6 65.86 4.7
2017 10 02 5:00 268.9 0.0 0.00 66.5 19.2 64.91 4.6
2017 10 02 6:00 268.8 0.0 0.00 65.4 18.6 64.3 4.6
2017 10 02 7:00 268.8 0.0 0.00 64.9 18.3 63.52 3.9
2017 10 02 8:00 268.2 0.0 0.00 66.7 19.3 59.13 5.7
2017 10 02 9:00 267.3 0.0 0.00 70.4 21.3 52.71 8.4
2017 10 02 10:00 266.2 0.0 0.00 75.2 24.0 46.71 8.4
2017 10 02 11:00 265.7 0.0 0.00 79.3 26.3 42.36 8.6
2017 10 02 12:00 265.5 0.0 0.00 82.5 28.0 40.56 9.8
2017 10 02 13:00 265.5 0.0 0.00 84.2 29.0 39.39 9.0
2017 10 02 14:00 265.4 0.0 0.00 85.3 29.6 36.86 9.3
2017 10 02 15:00 265.3 0.0 0.00 85.9 30.0 34.94 9.9
2017 10 02 16:00 265.3 0.0 0.00 85.7 29.9 33.67 9.6
2017 10 02 17:00 265.5 0.0 0.00 84.4 29.1 35.4 8.7
2017 10 02 18:00 266.1 0.0 0.00 81.2 27.4 41.11 6.3
2017 10 02 19:00 266.7 0.0 0.00 77.5 25.3 48.29 4.8
2017 10 02 20:00 267.4 0.0 0.00 74.8 23.8 53.74 4.0
2017 10 02 21:00 267.4 0.0 0.00 74.1 23.4 56.6 6.2
2017 10 02 22:00 268.0 0.0 0.00 73.6 23.1 59.31 7.0
2017 10 02 23:00 268.2 0.0 0.00 72.4 22.5 63.29 7.9
2017 10 02 24:00 268.8 0.0 0.00 71.1 21.7 67.96 8.0
2017 10 03 1:00 268.8 0.0 0.00 70.3 21.3 70.1 7.4
2017 10 03 2:00 268.8 0.0 0.00 70.2 21.2 71.23 7.1
2017 10 03 3:00 269.3 0.0 0.00 70.2 21.2 72.65 7.0
2017 10 03 4:00 269.5 0.0 0.00 70.2 21.2 73.3 7.1
2017 10 03 5:00 269.5 0.0 0.00 70.2 21.2 73.53 4.5
2017 10 03 6:00 269.5 0.0 0.00 70.4 21.4 73.28 4.7
2017 10 03 7:00 269.5 0.0 0.00 71.0 21.6 73.22 5.2
2017 10 03 8:00 269.4 0.0 0.00 71.9 22.1 72.3 7.0
2017 10 03 9:00 268.8 0.0 0.00 73.3 23.0 69.71 8.9
2017 10 03 10:00 268.5 0.0 0.00 75.3 24.0 65.67 10.8
2017 10 03 11:00 268.4 0.0 0.00 76.0 24.4 64.96 10.0
2017 10 03 12:00 269.1 0.0 0.00 73.1 22.8 72.96 10.1
2017 10 03 13:00 269.0 0.0 0.00 72.7 22.6 75.91 7.2
2017 10 03 14:00 268.8 0.0 0.00 74.1 23.4 73.29 6.6
2017 10 03 15:00 269.1 0.0 0.00 74.4 23.6 73.75 7.6
2017 10 03 16:00 269.4 0.0 0.00 75.1 23.9 75.18 5.4
2017 10 03 17:00 269.4 0.0 0.00 76.5 24.7 70.71 3.9
2017 10 03 18:00 269.4 0.0 0.00 75.7 24.3 70.43 6.1
2017 10 03 19:00 270.0 0.0 0.00 74.3 23.5 72.9 6.0
2017 10 03 20:00 270.4 0.0 0.00 73.3 23.0 75.23 3.8
2017 10 03 21:00 Wet 318.9 0.0 0.00 72.2 22.3 79.8 3.8
2017 10 03 22:00 Wet 380.0 0.0 0.51 69.9 21.0 89.7 5.2
2017 10 03 23:00 Wet 443.5 0.1 1.52 69.1 20.6 92.4 6.4
2017 10 03 24:00 Wet 353.1 0.0 0.25 69.0 20.6 93.1 8.3
2017 10 04 1:00 Wet 296.0 0.0 0.00 69.4 20.8 91.3 6.2
2017 10 04 2:00 276.1 0.0 0.00 69.1 20.6 92 5.7
2017 10 04 3:00 276.1 0.0 0.00 68.6 20.3 93.6 0.9
2017 10 04 4:00 275.1 0.0 0.00 68.4 20.2 94.9 0.9
2017 10 04 5:00 279.6 0.0 0.00 68.3 20.2 95.1 2.3
2017 10 04 6:00 281.0 0.0 0.00 68.2 20.1 95.5 2.1
2017 10 04 7:00 Wet 307.6 0.0 0.00 68.2 20.1 95.6 0.8
2017 10 04 8:00 Wet 385.0 0.1 3.05 68.5 20.3 95.5 1.8
2017 10 04 9:00 Wet 286.7 0.0 0.00 69.4 20.8 94 2.2
2017 10 04 10:00 279.2 0.0 0.00 70.9 21.6 90.5 2.8
2017 10 04 11:00 272.5 0.0 0.00 72.6 22.5 84.8 2.1
2017 10 04 12:00 Wet 377.9 0.1 2.54 73.3 23.0 86.4 1.6
2017 10 04 13:00 Wet 334.4 0.0 0.51 73.2 22.9 87.7 0.6
2017 10 04 14:00 Wet 422.2 0.1 1.27 72.1 22.3 91.6 1.5
2017 10 04 15:00 Wet 300.2 0.0 0.00 72.8 22.7 89.9 0.5
2017 10 04 16:00 281.1 0.0 0.00 72.3 22.4 91.8 0.7
2017 10 04 17:00 Wet 314.8 0.0 0.00 71.8 22.1 93.7 0.4
2017 10 04 18:00 Wet 416.1 0.0 0.51 71.2 21.8 95.4 0.2
2017 10 04 19:00 Wet 500.2 0.0 0.76 70.8 21.6 96.2 0.2
2017 10 04 20:00 Wet 489.8 0.0 0.76 70.4 21.3 97 1.3
2017 10 04 21:00 Wet 454.8 0.0 0.25 69.0 20.5 97 1.7
2017 10 04 22:00 Wet 394.1 0.0 0.25 68.4 20.2 97.6 0.1
2017 10 04 23:00 Wet 391.4 0.0 0.00 68.5 20.3 98 1.1
2017 10 04 24:00 Wet 328.8 0.0 0.00 68.3 20.2 98.4 0.7
2017 10 05 1:00 Wet 434.5 0.0 0.25 68.4 20.2 98.7 0.0
2017 10 05 2:00 Wet 394.8 0.0 0.25 68.4 20.2 98.7 0.0
2017 10 05 3:00 Wet 379.2 0.0 0.00 68.4 20.2 98.8 0.0
2017 10 05 4:00 Wet 351.0 0.0 0.00 68.4 20.2 98.7 0.0
2017 10 05 5:00 Wet 348.6 0.0 0.00 68.3 20.2 98.6 0.3
2017 10 05 6:00 Wet 339.0 0.0 0.00 68.3 20.2 98.4 0.1
2017 10 05 7:00 Wet 331.3 0.0 0.00 68.4 20.2 98.1 0.0
2017 10 05 8:00 Wet 320.9 0.0 0.00 68.9 20.5 97.4 0.8
2017 10 05 9:00 279.2 0.0 0.00 70.8 21.5 91.2 1.3
2017 10 05 10:00 271.1 0.0 0.00 73.5 23.0 82 1.6
2017 10 05 11:00 270.7 0.0 0.00 74.3 23.5 78.72 3.5
2017 10 05 12:00 269.9 0.0 0.00 75.9 24.4 71.69 4.8
2017 10 05 13:00 269.8 0.0 0.00 76.7 24.9 68.59 3.3
2017 10 05 14:00 269.7 0.0 0.00 77.1 25.0 67.27 5.0
2017 10 05 15:00 270.1 0.0 0.00 76.0 24.5 70.46 4.8
2017 10 05 16:00 270.1 0.0 0.00 76.5 24.7 69.79 2.7
2017 10 05 17:00 270.5 0.0 0.00 75.7 24.3 72.42 1.2
2017 10 05 18:00 271.2 0.0 0.00 74.4 23.6 76.2 1.5
2017 10 05 19:00 272.0 0.0 0.00 72.8 22.7 81.7 0.0
2017 10 05 20:00 273.4 0.0 0.00 71.4 21.9 88.4 0.6
2017 10 05 21:00 274.2 0.0 0.00 70.9 21.6 90.6 0.3
2017 10 05 22:00 279.2 0.0 0.00 70.0 21.1 92.4 0.1
2017 10 05 23:00 276.8 0.0 0.00 69.6 20.9 93.5 0.3
2017 10 05 24:00 274.5 0.0 0.00 70.1 21.2 89.7 0.9
2017 10 06 1:00 273.2 0.0 0.00 70.4 21.3 82.5 2.2
2017 10 06 2:00 272.1 0.0 0.00 70.9 21.6 73.9 3.9
2017 10 06 3:00 271.3 0.0 0.00 70.9 21.6 68.59 5.0
2017 10 06 4:00 Wet 286.2 0.0 0.25 70.2 21.2 70.36 3.5
2017 10 06 5:00 Wet 460.2 0.0 0.76 66.9 19.4 87.3 2.4
2017 10 06 6:00 Wet 397.0 0.0 0.76 65.6 18.6 94.2 3.3
2017 10 06 7:00 281.5 0.0 0.00 66.3 19.1 89.1 6.4
2017 10 06 8:00 Wet 295.5 0.0 0.00 66.4 19.1 89.9 2.7
2017 10 06 9:00 Wet 333.2 0.0 0.00 67.7 19.8 85.9 2.4
2017 10 06 10:00 282.1 0.0 0.00 68.6 20.4 83.8 4.5
2017 10 06 11:00 271.0 0.0 0.00 71.1 21.7 76.34 4.2
2017 10 06 12:00 270.7 0.0 0.00 73.8 23.2 67.78 6.3
2017 10 06 13:00 271.2 0.0 0.00 73.5 23.1 68.64 5.6
2017 10 06 14:00 Wet 302.1 0.0 0.00 72.8 22.7 70.95 2.8
2017 10 06 15:00 Wet 361.1 0.0 0.25 72.7 22.6 74.76 0.8
2017 10 06 16:00 Wet 352.3 0.0 0.00 72.0 22.2 81.7 1.3
2017 10 06 17:00 279.2 0.0 0.00 71.8 22.1 84.6 0.9
2017 10 06 18:00 273.3 0.0 0.00 71.3 21.8 85.6 1.1
2017 10 06 19:00 272.8 0.0 0.00 71.1 21.7 79.26 2.5
2017 10 06 20:00 271.2 0.0 0.00 72.7 22.6 64.4 3.0
2017 10 06 21:00 270.8 0.0 0.00 72.3 22.4 60.89 3.3
2017 10 06 22:00 270.5 0.0 0.00 73.5 23.0 56.79 6.2
2017 10 06 23:00 269.8 0.0 0.00 73.6 23.1 55.89 7.1
2017 10 06 24:00 269.8 0.0 0.00 72.8 22.7 57.65 5.6
2017 10 07 1:00 270.1 0.0 0.00 71.6 22.0 60.22 5.6
2017 10 07 2:00 270.0 0.0 0.00 71.5 21.9 59.82 7.2
2017 10 07 3:00 270.0 0.0 0.00 71.8 22.1 59.73 7.1
2017 10 07 4:00 269.8 0.0 0.00 72.3 22.4 59.75 7.5
2017 10 07 5:00 272.2 0.0 0.00 71.5 22.0 63.32 8.4
2017 10 07 6:00 270.3 0.0 0.00 70.5 21.4 67.09 7.4
2017 10 07 7:00 270.5 0.0 0.00 69.7 20.9 70.01 8.7
2017 10 07 8:00 270.0 0.0 0.00 72.0 22.2 63.05 11.8
2017 10 07 9:00 269.3 0.0 0.00 74.1 23.4 58.47 11.3
2017 10 07 10:00 269.4 0.0 0.00 74.1 23.4 57.99 10.9
2017 10 07 11:00 269.4 0.0 0.00 74.4 23.6 57.36 10.7
2017 10 07 12:00 Wet 367.4 0.1 2.54 67.2 19.6 82.1 11.6
2017 10 07 13:00 Wet 366.6 0.0 1.02 64.4 18.0 90.5 9.2
2017 10 07 14:00 Wet 293.2 0.0 0.00 65.5 18.6 88.5 10.1
2017 10 07 15:00 271.1 0.0 0.00 68.8 20.5 76.12 12.2
2017 10 07 16:00 270.2 0.0 0.00 70.2 21.2 67.43 9.7
2017 10 07 17:00 270.1 0.0 0.00 71.1 21.7 64.31 8.8
2017 10 07 18:00 270.1 0.0 0.00 69.9 21.0 61.04 5.8
2017 10 07 19:00 270.6 0.0 0.00 66.7 19.3 64.33 1.9
2017 10 07 20:00 271.8 0.0 0.00 64.1 17.8 70.24 0.4
2017 10 07 21:00 274.0 0.0 0.00 62.2 16.8 75.75 0.1
2017 10 07 22:00 278.8 0.0 0.00 60.2 15.7 82.3 0.0
2017 10 07 23:00 Wet 340.6 0.0 0.00 57.0 13.9 91.6 0.6
2017 10 07 24:00 Wet 421.5 0.0 0.00 55.0 12.8 94.6 0.6
2017 10 08 1:00 Wet 439.1 0.0 0.00 54.2 12.3 96.8 1.1
2017 10 08 2:00 Wet 418.8 0.0 0.00 53.1 11.7 97 1.0
2017 10 08 3:00 Wet 396.4 0.0 0.00 52.3 11.3 97.6 0.1
2017 10 08 4:00 Wet 388.5 0.0 0.00 51.0 10.6 98.1 0.0
2017 10 08 5:00 Wet 383.8 0.0 0.00 50.4 10.2 98.5 0.0
2017 10 08 6:00 Wet 382.2 0.0 0.00 49.5 9.7 98.8 0.1
2017 10 08 7:00 Wet 368.7 0.0 0.00 49.1 9.5 99.1 0.0
2017 10 08 8:00 Wet 296.4 0.0 0.00 55.2 12.9 98.2 1.4
2017 10 08 9:00 269.6 0.0 0.00 63.8 17.7 80.1 1.0
2017 10 08 10:00 268.8 0.0 0.00 69.5 20.8 68.58 3.6
2017 10 08 11:00 268.2 0.0 0.00 73.9 23.3 54.74 6.3
2017 10 08 12:00 267.4 0.0 0.00 75.8 24.3 48.39 7.1
2017 10 08 13:00 267.3 0.0 0.00 77.2 25.1 45.87 6.4
2017 10 08 14:00 267.3 0.0 0.00 79.4 26.3 42.99 4.9
2017 10 08 15:00 267.3 0.0 0.00 80.7 27.1 40.69 3.3
2017 10 08 16:00 267.3 0.0 0.00 81.6 27.6 38.58 2.6
2017 10 08 17:00 267.3 0.0 0.00 82.3 27.9 36.33 0.5
2017 10 08 18:00 267.8 0.0 0.00 77.5 25.3 44.87 0.1
2017 10 08 19:00 269.2 0.0 0.00 71.6 22.0 59.64 1.5
2017 10 08 20:00 272.2 0.0 0.00 67.3 19.6 72.34 0.2
2017 10 08 21:00 281.8 0.0 0.00 63.7 17.6 82.4 0.0
2017 10 08 22:00 Wet 308.1 0.0 0.00 61.7 16.5 87.7 0.1
2017 10 08 23:00 Wet 357.8 0.0 0.00 59.8 15.5 93.2 0.2
2017 10 08 24:00 Wet 384.8 0.0 0.00 58.8 14.9 94.4 0.1
2017 10 09 1:00 Wet 409.9 0.0 0.00 58.1 14.5 95.9 0.0
2017 10 09 2:00 Wet 416.3 0.0 0.00 57.3 14.1 96.6 0.3
2017 10 09 3:00 Wet 416.0 0.0 0.00 57.1 13.9 96.3 0.4
2017 10 09 4:00 Wet 397.1 0.0 0.00 56.7 13.7 96.7 0.6
2017 10 09 5:00 Wet 373.0 0.0 0.00 56.7 13.7 96.8 0.1
2017 10 09 6:00 Wet 375.9 0.0 0.00 57.0 13.9 96.8 0.1
2017 10 09 7:00 Wet 365.5 0.0 0.00 56.8 13.8 96.5 0.0
2017 10 09 8:00 Wet 286.3 0.0 0.00 63.1 17.3 88.3 0.6
2017 10 09 9:00 270.2 0.0 0.00 69.2 20.7 80.2 2.9
2017 10 09 10:00 269.3 0.0 0.00 74.6 23.6 73.01 5.0
2017 10 09 11:00 268.7 0.0 0.00 77.4 25.2 65.76 4.9
2017 10 09 12:00 268.0 0.0 0.00 79.8 26.6 57.81 4.5
2017 10 09 13:00 267.9 0.0 0.00 80.6 27.0 53.72 4.7
2017 10 09 14:00 267.9 0.0 0.00 81.6 27.5 53.45 4.2
2017 10 09 15:00 268.1 0.0 0.00 82.3 28.0 52.31 4.6
2017 10 09 16:00 267.6 0.0 0.00 83.9 28.8 42.63 3.4
2017 10 09 17:00 267.9 0.0 0.00 82.5 28.1 48.52 3.9
2017 10 09 18:00 270.0 0.0 0.00 76.5 24.7 70.64 3.8
2017 10 09 19:00 271.5 0.0 0.00 73.6 23.1 77.28 1.2
2017 10 09 20:00 274.9 0.0 0.00 71.3 21.8 83.3 0.5
2017 10 09 21:00 Wet 288.3 0.0 0.00 68.6 20.3 90.8 0.8
2017 10 09 22:00 279.4 0.0 0.00 68.6 20.3 89.6 1.1
2017 10 09 23:00 Wet 291.8 0.0 0.00 67.0 19.4 93.7 0.7
2017 10 09 24:00 279.1 0.0 0.00 68.2 20.1 91.7 0.3
2017 10 10 1:00 276.2 0.0 0.00 68.1 20.1 92.4 1.9
2017 10 10 2:00 274.6 0.0 0.00 68.0 20.0 91.8 2.4
2017 10 10 3:00 276.8 0.0 0.00 67.4 19.7 92.7 2.8
2017 10 10 4:00 274.8 0.0 0.00 66.4 19.1 90.2 5.7
2017 10 10 5:00 Wet 382.0 0.1 1.52 65.5 18.6 93.7 2.3
2017 10 10 6:00 Wet 306.8 0.0 0.00 65.2 18.5 95.5 3.0
2017 10 10 7:00 Wet 284.6 0.0 0.00 65.1 18.4 94.2 2.4
2017 10 10 8:00 273.9 0.0 0.00 65.9 18.9 93 2.6
2017 10 10 9:00 273.3 0.0 0.00 67.3 19.6 92.9 1.9
2017 10 10 10:00 273.9 0.0 0.00 68.6 20.3 92.6 4.7
2017 10 10 11:00 Wet 489.1 0.3 8.38 64.8 18.3 96.5 6.6
2017 10 10 12:00 282.4 0.0 0.00 70.8 21.5 87.5 4.1
2017 10 10 13:00 271.8 0.0 0.00 71.5 21.9 84.8 3.8
2017 10 10 14:00 270.6 0.0 0.00 73.7 23.2 78.67 2.5
2017 10 10 15:00 271.2 0.0 0.00 69.9 21.1 84.7 8.6
2017 10 10 16:00 272.4 0.0 0.00 63.6 17.6 91.5 8.9
2017 10 10 17:00 274.9 0.0 0.00 59.0 15.0 94.1 9.9
2017 10 10 18:00 Wet 317.7 0.0 0.25 55.7 13.2 90.5 11.1
2017 10 10 19:00 Wet 312.0 0.0 0.00 51.9 11.1 90.8 9.8
2017 10 10 20:00 276.5 0.0 0.00 50.4 10.2 89.2 9.9
2017 10 10 21:00 273.0 0.0 0.00 49.3 9.6 89.5 10.4
2017 10 10 22:00 273.8 0.0 0.00 48.3 9.0 92.9 8.9
2017 10 10 23:00 273.2 0.0 0.00 48.3 9.0 91.6 9.1
2017 10 10 24:00 273.0 0.0 0.00 48.9 9.4 91 8.2
2017 10 11 1:00 274.6 0.0 0.00 48.9 9.4 94.4 8.1
2017 10 11 2:00 274.8 0.0 0.00 48.8 9.4 94.5 8.1
2017 10 11 3:00 274.0 0.0 0.00 48.5 9.1 94 8.4
2017 10 11 4:00 274.6 0.0 0.00 48.3 9.1 95.1 7.9
2017 10 11 5:00 274.6 0.0 0.00 48.6 9.2 95.4 7.7
2017 10 11 6:00 274.3 0.0 0.00 49.2 9.5 94.8 7.1
2017 10 11 7:00 274.1 0.0 0.00 49.4 9.7 94.2 7.0
2017 10 11 8:00 273.1 0.0 0.00 50.0 10.0 91.4 7.6
2017 10 11 9:00 272.9 0.0 0.00 50.7 10.4 88.8 7.2
2017 10 11 10:00 272.5 0.0 0.00 51.3 10.7 88.8 8.4
2017 10 11 11:00 271.8 0.0 0.00 52.5 11.4 84.7 7.9
2017 10 11 12:00 271.6 0.0 0.00 53.5 11.9 82.1 8.3
2017 10 11 13:00 271.4 0.0 0.00 54.8 12.7 79.72 7.9
2017 10 11 14:00 271.0 0.0 0.00 55.8 13.2 77.03 6.8
2017 10 11 15:00 271.0 0.0 0.00 56.2 13.4 75.38 5.1
2017 10 11 16:00 271.4 0.0 0.00 56.0 13.3 75.79 4.4
2017 10 11 17:00 271.6 0.0 0.00 55.3 12.9 78.11 3.5
2017 10 11 18:00 271.7 0.0 0.00 54.5 12.5 81.3 3.7
2017 10 11 19:00 272.8 0.0 0.00 53.3 11.8 87.8 3.9
2017 10 11 20:00 273.5 0.0 0.00 52.8 11.5 91.9 1.8
2017 10 11 21:00 273.8 0.0 0.00 52.7 11.5 92.3 1.6
2017 10 11 22:00 274.8 0.0 0.00 52.5 11.4 93.5 1.5
2017 10 11 23:00 274.8 0.0 0.00 52.5 11.4 94.1 1.5
2017 10 11 24:00 Wet 287.0 0.0 0.00 52.6 11.4 94.8 0.9
2017 10 12 1:00 Wet 322.4 0.0 0.00 52.4 11.3 96.1 1.5
2017 10 12 2:00 Wet 329.5 0.0 0.00 52.5 11.4 95.8 2.4
2017 10 12 3:00 Wet 292.9 0.0 0.00 52.4 11.3 94.2 1.2
2017 10 12 4:00 275.5 0.0 0.00 52.6 11.5 94.1 0.3
2017 10 12 5:00 278.2 0.0 0.00 52.7 11.5 94.1 0.7
2017 10 12 6:00 Wet 291.9 0.0 0.00 52.6 11.4 95.1 0.2
2017 10 12 7:00 Wet 319.9 0.0 0.00 52.6 11.4 96.2 0.8
2017 10 12 8:00 Wet 288.1 0.0 0.00 52.9 11.6 93.2 2.4
2017 10 12 9:00 272.9 0.0 0.00 53.7 12.1 89 2.6
2017 10 12 10:00 272.2 0.0 0.00 54.4 12.5 84.2 4.4
2017 10 12 11:00 271.8 0.0 0.00 54.9 12.7 80.8 4.1
2017 10 12 12:00 271.6 0.0 0.00 55.3 12.9 81.1 4.9
2017 10 12 13:00 271.2 0.0 0.00 56.1 13.4 77.45 4.7
2017 10 12 14:00 270.8 0.0 0.00 56.9 13.8 75.47 3.9
2017 10 12 15:00 270.8 0.0 0.00 57.7 14.3 74.16 3.2
2017 10 12 16:00 270.8 0.0 0.00 59.0 15.0 70.64 4.8
2017 10 12 17:00 271.2 0.0 0.00 59.4 15.2 70.54 5.0
2017 10 12 18:00 272.4 0.0 0.00 56.7 13.7 77.91 2.8
2017 10 12 19:00 275.4 0.0 0.00 54.0 12.2 85.1 2.1
2017 10 12 20:00 281.2 0.0 0.00 52.8 11.6 88.6 2.1
2017 10 12 21:00 Wet 300.0 0.0 0.00 52.0 11.1 90.8 2.1
2017 10 12 22:00 Wet 335.9 0.0 0.00 51.2 10.7 93.2 2.2
2017 10 12 23:00 Wet 372.0 0.0 0.00 50.9 10.5 94.5 2.2
2017 10 12 24:00 Wet 397.8 0.0 0.00 50.8 10.5 95.4 2.5
2017 10 13 1:00 Wet 408.6 0.0 0.00 50.6 10.3 96.5 1.9
2017 10 13 2:00 Wet 402.9 0.0 0.00 50.5 10.3 97.2 1.8
2017 10 13 3:00 Wet 377.5 0.0 0.00 50.6 10.3 97.5 2.3
2017 10 13 4:00 Wet 375.3 0.0 0.00 50.2 10.1 97.9 2.1
2017 10 13 5:00 Wet 335.2 0.0 0.00 51.5 10.9 97.8 2.9
2017 10 13 6:00 Wet 301.3 0.0 0.00 52.6 11.4 96.5 3.0
2017 10 13 7:00 Wet 286.7 0.0 0.00 53.3 11.8 95.8 3.1
2017 10 13 8:00 276.4 0.0 0.00 55.0 12.8 93.1 3.6
2017 10 13 9:00 272.8 0.0 0.00 57.0 13.9 87.8 4.3
2017 10 13 10:00 272.2 0.0 0.00 58.7 14.8 83.1 4.7
2017 10 13 11:00 271.2 0.0 0.00 61.5 16.4 76.63 4.7
2017 10 13 12:00 270.2 0.0 0.00 65.2 18.5 68.71 5.8
2017 10 13 13:00 269.4 0.0 0.00 69.7 20.9 61.51 6.1
2017 10 13 14:00 269.2 0.0 0.00 73.6 23.1 56.26 6.2
2017 10 13 15:00 268.9 0.0 0.00 76.5 24.7 53.25 6.4
2017 10 13 16:00 269.0 0.0 0.00 77.8 25.5 52.49 6.2
2017 10 13 17:00 269.3 0.0 0.00 76.7 24.8 55.2 5.4
2017 10 13 18:00 269.9 0.0 0.00 72.9 22.7 61.65 4.4
2017 10 13 19:00 270.4 0.0 0.00 70.3 21.3 66.17 3.0
2017 10 13 20:00 270.8 0.0 0.00 69.3 20.8 68.09 2.3
2017 10 13 21:00 271.2 0.0 0.00 68.0 20.0 70.82 1.1
2017 10 13 22:00 271.6 0.0 0.00 66.3 19.1 74.46 1.8
2017 10 13 23:00 271.5 0.0 0.00 66.4 19.1 72.35 2.5
2017 10 13 24:00 271.5 0.0 0.00 66.5 19.2 70.69 2.4
2017 10 14 1:00 271.5 0.0 0.00 66.0 18.9 71.18 1.5
2017 10 14 2:00 271.5 0.0 0.00 65.3 18.5 72.1 2.1
2017 10 14 3:00 271.5 0.0 0.00 63.9 17.7 75.37 2.0
2017 10 14 4:00 271.9 0.0 0.00 63.1 17.3 77.39 2.8
2017 10 14 5:00 271.8 0.0 0.00 63.4 17.5 76.24 3.2
2017 10 14 6:00 271.5 0.0 0.00 64.1 17.9 74.86 3.2
2017 10 14 7:00 271.5 0.0 0.00 64.3 17.9 75.71 2.9
2017 10 14 8:00 270.6 0.0 0.00 67.7 19.8 71.87 3.7
2017 10 14 9:00 269.5 0.0 0.00 72.8 22.6 63.39 7.4
2017 10 14 10:00 269.0 0.0 0.00 75.7 24.3 60.72 8.8
2017 10 14 11:00 268.8 0.0 0.00 78.9 26.1 58.2 8.2
2017 10 14 12:00 268.1 0.0 0.00 83.5 28.6 52.47 8.0
2017 10 14 13:00 268.0 0.0 0.00 84.6 29.2 50.8 8.6
2017 10 14 14:00 268.0 0.0 0.00 84.9 29.4 49.46 9.0
2017 10 14 15:00 267.8 0.0 0.00 86.3 30.2 45.09 11.2
2017 10 14 16:00 267.4 0.0 0.00 86.4 30.2 43.05 10.9
2017 10 14 17:00 267.4 0.0 0.00 85.6 29.8 43.76 9.9
2017 10 14 18:00 268.0 0.0 0.00 82.7 28.2 48.62 7.4
2017 10 14 19:00 268.5 0.0 0.00 79.7 26.5 53.56 3.0
2017 10 14 20:00 269.2 0.0 0.00 76.7 24.9 59.1 2.5
2017 10 14 21:00 269.4 0.0 0.00 76.1 24.5 59.39 4.9
2017 10 14 22:00 268.7 0.0 0.00 77.5 25.3 55.34 7.6
2017 10 14 23:00 Wet 313.9 0.1 1.27 71.7 22.1 74.22 9.1
2017 10 14 24:00 Wet 423.2 0.1 3.05 67.4 19.7 90.9 5.6
2017 10 15 1:00 Wet 451.8 0.2 3.81 66.9 19.4 91 8.9
2017 10 15 2:00 Wet 480.5 0.1 2.03 65.5 18.6 94.1 6.9
2017 10 15 3:00 Wet 499.1 0.2 4.32 64.9 18.3 94.5 7.2
2017 10 15 4:00 Wet 454.0 0.1 2.29 60.8 16.0 92.2 10.7
2017 10 15 5:00 Wet 352.1 0.0 0.25 57.1 13.9 90.6 14.4
2017 10 15 6:00 Wet 296.1 0.0 0.00 54.4 12.4 86 14.0
2017 10 15 7:00 272.1 0.0 0.00 53.0 11.7 79.65 12.0
2017 10 15 8:00 271.3 0.0 0.00 52.0 11.1 72.41 14.1
2017 10 15 9:00 270.1 0.0 0.00 52.9 11.6 65.88 13.5
2017 10 15 10:00 269.5 0.0 0.00 53.6 12.0 60.49 15.0
2017 10 15 11:00 268.6 0.0 0.00 56.5 13.6 56.15 12.9
2017 10 15 12:00 268.2 0.0 0.00 58.1 14.5 52.8 12.4
2017 10 15 13:00 268.1 0.0 0.00 59.9 15.5 48.71 11.7
2017 10 15 14:00 268.1 0.0 0.00 60.7 15.9 47.79 12.0
2017 10 15 15:00 268.1 0.0 0.00 60.8 16.0 47.3 11.9
2017 10 15 16:00 268.1 0.0 0.00 60.3 15.7 48.04 11.1
2017 10 15 17:00 268.5 0.0 0.00 58.8 14.9 49.43 11.0
2017 10 15 18:00 269.1 0.0 0.00 55.1 12.9 55.64 5.9
2017 10 15 19:00 270.6 0.0 0.00 51.4 10.8 66.6 1.5
2017 10 15 20:00 277.2 0.0 0.00 48.9 9.4 74.34 0.0
2017 10 15 21:00 Wet 305.8 0.0 0.00 46.1 7.8 85.5 0.3
2017 10 15 22:00 Wet 376.2 0.0 0.00 44.6 7.0 92.1 0.1
2017 10 15 23:00 Wet 434.0 0.0 0.00 42.8 6.0 94.4 0.4
2017 10 15 24:00 Wet 455.1 0.0 0.00 41.9 5.5 95.6 1.0
2017 10 16 1:00 Wet 482.7 0.0 0.00 40.8 4.9 96.5 0.2
2017 10 16 2:00 Wet 468.1 0.0 0.00 39.7 4.3 97.5 0.1
2017 10 16 3:00 Wet 415.5 0.0 0.00 38.7 3.7 97.8 0.0
2017 10 16 4:00 Wet 395.8 0.0 0.00 38.1 3.4 98.1 0.8
2017 10 16 5:00 Wet 391.0 0.0 0.00 37.8 3.2 97.4 0.5
2017 10 16 6:00 Wet 390.7 0.0 0.00 36.5 2.5 97.9 0.0
2017 10 16 7:00 Wet 379.9 0.0 0.00 37.0 2.8 97.7 0.3
2017 10 16 8:00 Wet 297.3 0.0 0.00 41.7 5.4 90.9 2.0
2017 10 16 9:00 269.0 0.0 0.00 48.7 9.3 77.64 1.9
2017 10 16 10:00 267.3 0.0 0.00 55.6 13.1 55.78 2.8
2017 10 16 11:00 266.7 0.0 0.00 59.6 15.3 42.87 4.9
2017 10 16 12:00 266.1 0.0 0.00 62.7 17.1 34.62 6.0
2017 10 16 13:00 266.0 0.0 0.00 64.4 18.0 31.88 5.8
2017 10 16 14:00 266.0 0.0 0.00 65.2 18.5 30.61 6.1
2017 10 16 15:00 266.1 0.0 0.00 65.8 18.8 31.18 5.6
2017 10 16 16:00 266.4 0.0 0.00 66.0 18.9 30.79 4.8
2017 10 16 17:00 266.8 0.0 0.00 64.7 18.1 33.34 3.7
2017 10 16 18:00 267.8 0.0 0.00 60.3 15.7 40.38 1.5
2017 10 16 19:00 268.8 0.0 0.00 55.9 13.3 50.65 1.5
2017 10 16 20:00 269.4 0.0 0.00 53.3 11.9 56.88 0.5
2017 10 16 21:00 271.0 0.0 0.00 49.7 9.8 65.7 0.0
2017 10 16 22:00 283.8 0.0 0.00 46.2 7.9 81.3 0.2
2017 10 16 23:00 Wet 301.6 0.0 0.00 45.1 7.3 84.6 0.0
2017 10 16 24:00 Wet 366.7 0.0 0.00 42.8 6.0 89.9 0.0
2017 10 17 1:00 Wet 424.5 0.0 0.00 41.7 5.4 93.7 0.3
2017 10 17 2:00 Wet 448.2 0.0 0.00 41.0 5.0 92.7 0.0
2017 10 17 3:00 Wet 460.4 0.0 0.00 40.5 4.7 92.5 0.5
2017 10 17 4:00 Wet 436.6 0.0 0.00 41.8 5.4 87 0.2
2017 10 17 5:00 Wet 415.7 0.0 0.00 40.0 4.4 90.8 1.2
2017 10 17 6:00 Wet 386.8 0.0 0.00 41.1 5.0 86.4 0.3
2017 10 17 7:00 Wet 339.4 0.0 0.00 43.3 6.3 76.8 1.0
2017 10 17 8:00 277.0 0.0 0.00 48.7 9.3 67.32 4.7
2017 10 17 9:00 269.3 0.0 0.00 52.7 11.5 58.13 7.8
2017 10 17 10:00 267.7 0.0 0.00 58.6 14.8 46.46 9.1
2017 10 17 11:00 266.9 0.0 0.00 61.5 16.4 41.92 8.1
2017 10 17 12:00 266.9 0.0 0.00 63.1 17.3 40.74 6.2
2017 10 17 13:00 266.5 0.0 0.00 66.3 19.1 35.32 7.6
2017 10 17 14:00 266.1 0.0 0.00 67.8 19.9 32.81 7.9
2017 10 17 15:00 266.4 0.0 0.00 68.4 20.2 31.95 7.5
2017 10 17 16:00 266.6 0.0 0.00 68.5 20.3 30.94 6.7
2017 10 17 17:00 266.7 0.0 0.00 67.0 19.4 33.25 5.3
2017 10 17 18:00 267.4 0.0 0.00 62.4 16.9 39.42 1.7
2017 10 17 19:00 268.5 0.0 0.00 57.6 14.2 47.78 0.5
2017 10 17 20:00 269.4 0.0 0.00 53.8 12.1 59.94 0.4
2017 10 17 21:00 271.4 0.0 0.00 50.0 10.0 71.27 0.7
2017 10 17 22:00 276.7 0.0 0.00 48.2 9.0 75.31 0.3
2017 10 17 23:00 280.2 0.0 0.00 45.6 7.5 83.4 0.5
2017 10 17 24:00 Wet 311.5 0.0 0.00 44.3 6.8 86.3 0.9
2017 10 18 1:00 Wet 370.6 0.0 0.00 42.8 6.0 89.6 1.5
2017 10 18 2:00 Wet 405.6 0.0 0.00 41.5 5.3 91.1 0.3
2017 10 18 3:00 Wet 427.3 0.0 0.00 40.8 4.9 90.2 0.0
2017 10 18 4:00 Wet 442.5 0.0 0.00 38.8 3.8 95.3 0.0
2017 10 18 5:00 Wet 439.1 0.0 0.00 37.9 3.3 96.3 0.2
2017 10 18 6:00 Wet 400.2 0.0 0.00 40.2 4.6 93.5 2.1
2017 10 18 7:00 Wet 366.4 0.0 0.00 41.0 5.0 91.3 2.4
2017 10 18 8:00 Wet 285.1 0.0 0.00 45.8 7.7 83.3 3.6
2017 10 18 9:00 268.8 0.0 0.00 54.3 12.4 65.79 3.0
2017 10 18 10:00 267.3 0.0 0.00 61.4 16.3 47.8 6.2
2017 10 18 11:00 266.8 0.0 0.00 64.9 18.3 40.76 8.7
2017 10 18 12:00 266.2 0.0 0.00 68.3 20.1 36.78 7.9
2017 10 18 13:00 266.0 0.0 0.00 70.7 21.5 32.77 9.1
2017 10 18 14:00 266.0 0.0 0.00 72.6 22.6 29.98 8.2
2017 10 18 15:00 266.0 0.0 0.00 72.9 22.7 28.9 7.8
2017 10 18 16:00 266.0 0.0 0.00 73.6 23.1 27.78 7.9
2017 10 18 17:00 266.1 0.0 0.00 72.0 22.2 29.34 5.3
2017 10 18 18:00 266.8 0.0 0.00 67.5 19.7 35.54 1.6
2017 10 18 19:00 267.4 0.0 0.00 63.7 17.6 43.17 0.9
2017 10 18 20:00 268.1 0.0 0.00 61.6 16.5 49.51 0.8
2017 10 18 21:00 268.7 0.0 0.00 59.4 15.2 55.78 2.2
2017 10 18 22:00 269.0 0.0 0.00 58.7 14.8 58.22 1.0
2017 10 18 23:00 269.4 0.0 0.00 58.8 14.9 58.3 0.7
2017 10 18 24:00 270.7 0.0 0.00 54.6 12.5 69.82 1.7
2017 10 19 1:00 273.2 0.0 0.00 52.1 11.2 76.84 1.0
2017 10 19 2:00 275.2 0.0 0.00 50.3 10.2 81.8 1.6
2017 10 19 3:00 273.0 0.0 0.00 50.8 10.4 81.2 1.6
2017 10 19 4:00 Wet 285.1 0.0 0.00 48.1 8.9 86.7 0.3
2017 10 19 5:00 Wet 339.1 0.0 0.00 45.7 7.6 93.8 0.0
2017 10 19 6:00 Wet 380.8 0.0 0.00 45.9 7.7 92.4 0.3
2017 10 19 7:00 Wet 394.0 0.0 0.00 45.0 7.2 94.3 0.0
2017 10 19 8:00 Wet 315.9 0.0 0.00 52.8 11.6 82 0.8
2017 10 19 9:00 267.9 0.0 0.00 61.9 16.6 64.71 0.7
2017 10 19 10:00 266.9 0.0 0.00 68.2 20.1 49.8 4.6
2017 10 19 11:00 266.2 0.0 0.00 71.7 22.1 40.89 6.8
2017 10 19 12:00 265.8 0.0 0.00 41.8 5.4 19.46 5.4
2017 10 19 13:00 265.8 0.0 0.00 75.2 24.0 37.56 4.3
2017 10 19 14:00 265.9 0.0 0.00 76.3 24.6 35.54 5.1
2017 10 19 15:00 266.0 0.0 0.00 77.7 25.4 33.78 5.2
2017 10 19 16:00 266.0 0.0 0.00 77.7 25.4 34.01 4.3
2017 10 19 17:00 266.5 0.0 0.00 76.3 24.6 37.67 2.1
2017 10 19 18:00 267.1 0.0 0.00 72.2 22.3 43.41 0.1
2017 10 19 19:00 268.8 0.0 0.00 65.4 18.5 58.07 0.1
2017 10 19 20:00 272.4 0.0 0.00 59.8 15.4 73.53 0.0
2017 10 19 21:00 279.2 0.0 0.00 56.8 13.8 82.9 0.0
2017 10 19 22:00 Wet 312.8 0.0 0.00 54.5 12.5 87.6 0.1
2017 10 19 23:00 Wet 348.3 0.0 0.00 52.8 11.5 89.3 0.2
2017 10 19 24:00 Wet 384.4 0.0 0.00 50.5 10.3 95.5 0.0
2017 10 20 1:00 Wet 405.4 0.0 0.00 49.8 9.9 95.9 0.0
2017 10 20 2:00 Wet 419.8 0.0 0.00 48.5 9.1 96.6 0.0
2017 10 20 3:00 Wet 400.6 0.0 0.00 47.1 8.4 97.2 0.1
2017 10 20 4:00 Wet 390.3 0.0 0.00 46.3 7.9 96.4 0.0
2017 10 20 5:00 Wet 386.5 0.0 0.00 44.9 7.2 96 0.4
2017 10 20 6:00 Wet 392.4 0.0 0.00 44.8 7.1 97.5 0.1
2017 10 20 7:00 Wet 386.9 0.0 0.00 44.8 7.1 97.7 0.2
2017 10 20 8:00 Wet 321.2 0.0 0.00 49.8 9.9 92.5 0.9
2017 10 20 9:00 274.4 0.0 0.00 57.8 14.3 77.65 3.5
2017 10 20 10:00 268.6 0.0 0.00 63.5 17.5 62.75 5.2
2017 10 20 11:00 267.9 0.0 0.00 66.6 19.2 56.33 5.0
2017 10 20 12:00 267.1 0.0 0.00 70.1 21.2 48.54 4.8
2017 10 20 13:00 266.7 0.0 0.00 72.6 22.6 39.82 5.6
2017 10 20 14:00 266.7 0.0 0.00 72.9 22.7 38.92 6.0
2017 10 20 15:00 266.5 0.0 0.00 74.1 23.4 37.66 6.3
2017 10 20 16:00 267.0 0.0 0.00 72.2 22.3 44.98 6.3
2017 10 20 17:00 267.4 0.0 0.00 71.5 22.0 44.52 5.7
2017 10 20 18:00 267.4 0.0 0.00 69.7 21.0 45.98 4.4
2017 10 20 19:00 267.4 0.0 0.00 68.0 20.0 45.47 3.5
2017 10 20 20:00 267.5 0.0 0.00 67.0 19.5 49.03 4.5
2017 10 20 21:00 267.5 0.0 0.00 67.5 19.7 49.83 6.9
CST mV in mm F C % mph
Year Month Day Hour Leaf Wetness Total
Precipitation
Avg. Temp Avg. Rel.
Humidity
Wind
Speed

Back to the top of the page